AAL137 EGLL-KLAX

Flight info

Callsign AAL137
Flight time 10h 27m
Altitude 28000
Route CPT L9 DIDZA N14 OKTAD/N0441F240 N14 ELNIF/N0481F300 DCT MEDOG DCT KRAGY DCT PEMOB DCT VATRY DCT PIKIL/M083F300 DCT 57N020W 58N030W 59N040W 60N050W/M083F320 DCT RADUN N938B PEPKI/N0482F320 N938B LOPVI DCT 58N070W/N0487F340 56N080W 53N090W DCT KALLU DCT YPG DCT MOT DCT RECAP DCT CZI DCT OCS/N0475F360 J107 BLD DCT HAKMN ANJLL4
Aircraft B77W/H-SDE1E2E3FGHIJ2J3J4J5M1RWXY/LB1D1

Departure

Time 2026-05-07 15:23
Airport London Heathrow Airport (EGLL)

Arrival

Time 2026-05-08 01:51
Airport Los Angeles International Airport (KLAX)
Time Latitude Longitude Altitude Speed Heading
2026-05-07 14:06 51.47316 -0.46410 91 ft 0 kts 25°
2026-05-07 15:12 51.47316 -0.46411 91 ft 1 kts 25°
2026-05-07 15:13 51.47302 -0.46421 95 ft 3 kts 25°
2026-05-07 15:13 51.47284 -0.46435 93 ft 3 kts 21°
2026-05-07 15:13 51.47265 -0.46442 91 ft 3 kts 354°
2026-05-07 15:13 51.47247 -0.46434 92 ft 3 kts 330°
2026-05-07 15:14 51.47232 -0.46419 92 ft 3 kts 325°
2026-05-07 15:14 51.47215 -0.46400 94 ft 3 kts 325°
2026-05-07 15:14 51.47201 -0.46385 93 ft 1 kts 325°
2026-05-07 15:14 51.47200 -0.46384 93 ft 0 kts 325°
2026-05-07 15:17 51.47204 -0.46389 93 ft 2 kts 325°
2026-05-07 15:17 51.47226 -0.46418 92 ft 7 kts 314°
2026-05-07 15:18 51.47238 -0.46515 91 ft 12 kts 271°
2026-05-07 15:18 51.47238 -0.46672 91 ft 15 kts 270°
2026-05-07 15:18 51.47235 -0.46820 95 ft 11 kts 258°
2026-05-07 15:18 51.47177 -0.46867 93 ft 12 kts 182°
2026-05-07 15:19 51.47049 -0.46867 91 ft 24 kts 179°
2026-05-07 15:19 51.46878 -0.46864 93 ft 24 kts 179°
2026-05-07 15:19 51.46738 -0.46864 94 ft 18 kts 180°
2026-05-07 15:19 51.46662 -0.46910 95 ft 11 kts 248°
2026-05-07 15:20 51.46656 -0.47073 94 ft 21 kts 270°
2026-05-07 15:20 51.46655 -0.47319 94 ft 22 kts 270°
2026-05-07 15:20 51.46655 -0.47569 93 ft 22 kts 269°
2026-05-07 15:20 51.46654 -0.47819 92 ft 22 kts 269°
2026-05-07 15:21 51.46652 -0.48070 92 ft 22 kts 269°
2026-05-07 15:21 51.46652 -0.48320 92 ft 22 kts 270°
2026-05-07 15:21 51.46651 -0.48567 93 ft 20 kts 270°
2026-05-07 15:21 51.46647 -0.48707 93 ft 11 kts 253°
2026-05-07 15:22 51.46586 -0.48776 96 ft 11 kts 198°
2026-05-07 15:22 51.46511 -0.48769 96 ft 11 kts 149°
2026-05-07 15:22 51.46481 -0.48647 94 ft 17 kts 96°
2026-05-07 15:22 51.46480 -0.48342 93 ft 39 kts 91°
2026-05-07 15:23 51.46480 -0.47526 92 ft 108 kts 90°
2026-05-07 15:23 51.46486 -0.45965 94 ft 170 kts 90°
2026-05-07 15:23 51.46490 -0.43849 244 ft 197 kts 90°
2026-05-07 15:23 51.46458 -0.41679 913 ft 197 kts 99°
2026-05-07 15:24 51.45875 -0.39681 1269 ft 207 kts 135°
2026-05-07 15:24 51.44599 -0.38512 1456 ft 219 kts 170°
2026-05-07 15:24 51.43096 -0.38721 1761 ft 223 kts 204°
2026-05-07 15:24 51.41772 -0.40083 2001 ft 233 kts 218°
2026-05-07 15:25 51.40527 -0.41738 2403 ft 237 kts 220°
2026-05-07 15:25 51.39267 -0.43467 2909 ft 240 kts 220°
2026-05-07 15:25 51.38185 -0.45476 3339 ft 241 kts 248°
2026-05-07 15:25 51.38033 -0.48122 3708 ft 244 kts 283°
2026-05-07 15:26 51.38519 -0.50750 4066 ft 249 kts 286°
2026-05-07 15:26 51.39015 -0.53425 4667 ft 251 kts 285°
2026-05-07 15:26 51.39494 -0.56150 5194 ft 259 kts 284°
2026-05-07 15:26 51.39971 -0.58987 5662 ft 267 kts 284°
2026-05-07 15:27 51.40443 -0.61908 6181 ft 274 kts 283°
2026-05-07 15:27 51.40910 -0.64888 6736 ft 279 kts 283°
2026-05-07 15:27 51.41376 -0.67924 7368 ft 282 kts 282°
2026-05-07 15:27 51.41840 -0.70990 7979 ft 285 kts 282°
2026-05-07 15:28 51.42302 -0.74093 8604 ft 288 kts 282°
2026-05-07 15:28 51.42764 -0.77231 9225 ft 291 kts 282°
2026-05-07 15:28 51.43227 -0.80403 9815 ft 294 kts 281°
2026-05-07 15:28 51.43695 -0.83610 10321 ft 300 kts 281°
2026-05-07 15:29 51.44182 -0.86966 10481 ft 318 kts 281°
2026-05-07 15:29 51.44693 -0.90508 10646 ft 336 kts 281°
2026-05-07 15:29 51.45236 -0.94280 10786 ft 356 kts 281°
2026-05-07 15:29 51.45802 -0.98214 11126 ft 369 kts 281°
2026-05-07 15:30 51.46377 -1.02209 11662 ft 376 kts 281°
2026-05-07 15:30 51.46968 -1.06318 12313 ft 380 kts 281°
2026-05-07 15:30 51.47563 -1.10466 13020 ft 383 kts 281°
2026-05-07 15:30 51.48161 -1.14665 13699 ft 387 kts 281°
2026-05-07 15:31 51.48862 -1.18846 14226 ft 392 kts 290°
2026-05-07 15:31 51.50118 -1.22761 14796 ft 398 kts 302°
2026-05-07 15:31 51.51864 -1.26219 15466 ft 400 kts 314°
2026-05-07 15:31 51.53919 -1.29252 16141 ft 402 kts 316°
2026-05-07 15:32 51.55996 -1.32282 16751 ft 405 kts 316°
2026-05-07 15:32 51.58075 -1.35375 17350 ft 408 kts 315°
2026-05-07 15:32 51.60024 -1.38701 17961 ft 409 kts 307°
2026-05-07 15:32 51.61710 -1.42382 18541 ft 410 kts 301°
2026-05-07 15:33 51.63137 -1.46366 19069 ft 411 kts 296°
2026-05-07 15:33 51.64450 -1.50412 19580 ft 414 kts 295°
2026-05-07 15:33 51.65784 -1.54536 20080 ft 416 kts 296°
2026-05-07 15:33 51.67138 -1.58675 20587 ft 419 kts 296°
2026-05-07 15:34 51.68501 -1.62833 21092 ft 421 kts 295°
2026-05-07 15:34 51.69659 -1.67172 21571 ft 422 kts 287°
2026-05-07 15:34 51.70492 -1.71719 22069 ft 424 kts 282°
2026-05-07 15:34 51.70891 -1.74866 22384 ft 425 kts 277°
2026-05-07 15:35 51.71245 -1.79606 22871 ft 426 kts 275°
2026-05-07 15:35 51.71572 -1.84369 23325 ft 429 kts 276°
2026-05-07 15:35 51.72127 -1.89123 23740 ft 433 kts 282°
2026-05-07 15:35 51.72831 -1.93801 24121 ft 436 kts 282°
2026-05-07 15:36 51.73560 -1.98565 24516 ft 438 kts 282°
2026-05-07 15:36 51.74291 -2.03351 24887 ft 440 kts 282°
2026-05-07 15:36 51.75015 -2.08152 25249 ft 442 kts 282°
2026-05-07 15:36 51.75738 -2.12992 25602 ft 444 kts 282°
2026-05-07 15:37 51.76456 -2.17856 25947 ft 447 kts 282°
2026-05-07 15:37 51.77174 -2.22737 26302 ft 449 kts 282°
2026-05-07 15:37 51.77893 -2.27653 26646 ft 451 kts 282°
2026-05-07 15:37 51.78615 -2.32598 26987 ft 453 kts 282°
2026-05-07 15:38 51.79338 -2.37565 27308 ft 455 kts 282°
2026-05-07 15:38 51.80062 -2.42557 27637 ft 457 kts 282°
2026-05-07 15:38 51.80781 -2.47515 27728 ft 448 kts 281°
2026-05-07 15:38 51.81490 -2.52437 27791 ft 453 kts 281°
2026-05-07 15:39 51.82199 -2.57433 27915 ft 458 kts 281°
2026-05-07 15:39 51.82880 -2.62479 27981 ft 460 kts 280°
2026-05-07 15:39 51.84227 -2.72703 28047 ft 471 kts 281°
2026-05-07 15:40 51.85604 -2.83084 28049 ft 478 kts 281°
2026-05-07 15:40 51.87007 -2.93605 28043 ft 478 kts 281°
2026-05-07 15:41 51.88404 -3.04112 28038 ft 478 kts 281°
2026-05-07 15:41 51.89791 -3.14633 28028 ft 478 kts 281°
2026-05-07 15:42 51.91168 -3.25167 28028 ft 478 kts 280°
2026-05-07 15:42 51.92536 -3.35708 28016 ft 478 kts 280°
2026-05-07 15:43 51.93897 -3.46267 28011 ft 479 kts 280°
2026-05-07 15:43 51.95249 -3.56839 28010 ft 479 kts 280°
2026-05-07 15:44 51.96593 -3.67418 28020 ft 479 kts 280°
2026-05-07 15:44 51.97920 -3.77942 28016 ft 479 kts 280°
2026-05-07 15:45 51.99256 -3.88603 28011 ft 479 kts 280°
2026-05-07 15:45 52.00565 -3.99142 28008 ft 479 kts 279°
2026-05-07 15:46 52.02528 -4.15092 28010 ft 480 kts 279°
2026-05-07 15:47 52.03822 -4.25710 28006 ft 480 kts 279°
2026-05-07 15:47 52.05108 -4.36356 28006 ft 480 kts 279°
2026-05-07 15:47 52.05746 -4.41668 28000 ft 480 kts 279°
2026-05-07 15:48 52.06385 -4.47002 28002 ft 480 kts 279°
2026-05-07 15:48 52.07651 -4.57649 28001 ft 480 kts 279°
2026-05-07 15:49 52.08906 -4.68287 28000 ft 481 kts 279°
2026-05-07 15:49 52.09532 -4.73626 27997 ft 481 kts 279°
2026-05-07 15:49 52.10156 -4.78975 27997 ft 481 kts 279°
2026-05-07 15:49 52.10779 -4.84332 28000 ft 481 kts 279°
2026-05-07 15:50 52.11392 -4.89615 28003 ft 481 kts 279°
2026-05-07 15:50 52.12621 -5.00322 28007 ft 481 kts 278°
2026-05-07 15:51 52.14120 -5.10911 27996 ft 483 kts 292°
2026-05-07 15:51 52.15896 -5.15567 28021 ft 488 kts 308°
2026-05-07 15:51 52.18360 -5.19406 27998 ft 493 kts 322°
2026-05-07 15:52 52.24440 -5.24628 28014 ft 497 kts 332°
2026-05-07 15:52 52.30694 -5.29545 28005 ft 498 kts 332°
2026-05-07 15:52 52.33799 -5.32057 28000 ft 498 kts 331°
2026-05-07 15:53 52.36891 -5.34598 27998 ft 497 kts 331°
2026-05-07 15:53 52.39980 -5.37159 27995 ft 497 kts 331°
2026-05-07 15:53 52.43028 -5.39695 27999 ft 497 kts 331°
2026-05-07 15:53 52.46115 -5.42261 27994 ft 497 kts 331°
2026-05-07 15:54 52.49203 -5.44829 27991 ft 497 kts 331°
2026-05-07 15:54 52.52225 -5.47549 27989 ft 495 kts 324°
2026-05-07 15:54 52.54972 -5.50937 27996 ft 492 kts 316°
2026-05-07 15:54 52.57429 -5.54835 27996 ft 490 kts 310°
2026-05-07 15:55 52.59549 -5.59199 27990 ft 487 kts 303°
2026-05-07 15:55 52.61516 -5.63762 27994 ft 488 kts 303°
2026-05-07 15:55 52.63468 -5.68355 27986 ft 489 kts 302°
2026-05-07 15:55 52.65413 -5.72943 27982 ft 489 kts 302°
2026-05-07 15:56 52.67360 -5.77521 27977 ft 489 kts 303°
2026-05-07 15:56 52.69323 -5.82120 27976 ft 489 kts 303°
2026-05-07 15:56 52.71286 -5.86707 27973 ft 489 kts 303°
2026-05-07 15:56 52.73247 -5.91280 27972 ft 489 kts 303°
2026-05-07 15:57 52.75215 -5.95870 27974 ft 489 kts 303°
2026-05-07 15:57 52.77178 -6.00455 27966 ft 489 kts 303°
2026-05-07 15:57 52.79141 -6.05046 27966 ft 489 kts 303°
2026-05-07 15:57 52.81101 -6.09640 27964 ft 489 kts 302°
2026-05-07 15:58 52.83062 -6.14243 27965 ft 489 kts 302°
2026-05-07 15:58 52.85018 -6.18848 27965 ft 489 kts 302°
2026-05-07 15:58 52.86968 -6.23446 27953 ft 489 kts 302°
2026-05-07 15:58 52.88926 -6.28070 27954 ft 489 kts 302°
2026-05-07 15:59 52.90850 -6.32625 27955 ft 489 kts 302°
2026-05-07 15:59 52.92802 -6.37251 27951 ft 489 kts 302°
2026-05-07 15:59 52.94756 -6.41892 27955 ft 489 kts 302°
2026-05-07 15:59 52.96698 -6.46515 27953 ft 489 kts 302°
2026-05-07 16:00 52.98645 -6.51156 27948 ft 489 kts 302°
2026-05-07 16:00 53.00586 -6.55793 27948 ft 489 kts 302°
2026-05-07 16:00 53.02528 -6.60439 27941 ft 489 kts 302°
2026-05-07 16:00 53.04464 -6.65079 27932 ft 489 kts 302°
2026-05-07 16:01 53.06403 -6.69734 27940 ft 489 kts 302°
2026-05-07 16:01 53.08336 -6.74385 27937 ft 489 kts 302°
2026-05-07 16:01 53.10275 -6.79063 27935 ft 489 kts 302°
2026-05-07 16:01 53.12182 -6.83668 27937 ft 489 kts 302°
2026-05-07 16:02 53.14110 -6.88331 27939 ft 489 kts 302°
2026-05-07 16:02 53.16041 -6.93008 27937 ft 489 kts 302°
2026-05-07 16:02 53.17964 -6.97677 27932 ft 489 kts 301°
2026-05-07 16:02 53.19888 -7.02356 27912 ft 489 kts 301°
2026-05-07 16:03 53.21808 -7.07035 27933 ft 489 kts 301°
2026-05-07 16:03 53.23730 -7.11728 27912 ft 489 kts 301°
2026-05-07 16:03 53.25652 -7.16430 27932 ft 489 kts 301°
2026-05-07 16:03 53.27573 -7.21137 27916 ft 489 kts 301°
2026-05-07 16:04 53.29488 -7.25839 27914 ft 489 kts 301°
2026-05-07 16:04 53.31398 -7.30539 27920 ft 489 kts 301°
2026-05-07 16:04 53.33285 -7.35190 27916 ft 489 kts 301°
2026-05-07 16:04 53.35191 -7.39893 27918 ft 488 kts 301°
2026-05-07 16:05 53.37098 -7.44611 27919 ft 488 kts 301°
2026-05-07 16:05 53.38999 -7.49321 27916 ft 488 kts 301°
2026-05-07 16:05 53.40898 -7.54037 27919 ft 488 kts 301°
2026-05-07 16:05 53.42797 -7.58760 27918 ft 488 kts 301°
2026-05-07 16:06 53.44689 -7.63475 27914 ft 488 kts 301°
2026-05-07 16:06 53.46585 -7.68209 27918 ft 488 kts 301°
2026-05-07 16:06 53.48476 -7.72940 27921 ft 488 kts 301°
2026-05-07 16:06 53.50371 -7.77690 27913 ft 488 kts 301°
2026-05-07 16:07 53.52254 -7.82417 27916 ft 487 kts 301°
2026-05-07 16:07 53.54115 -7.87100 27914 ft 487 kts 301°
2026-05-07 16:07 53.55998 -7.91845 27916 ft 487 kts 301°
2026-05-07 16:07 53.57883 -7.96606 27920 ft 487 kts 301°
2026-05-07 16:08 53.59761 -8.01357 27916 ft 487 kts 301°
2026-05-07 16:08 53.61640 -8.06120 27921 ft 487 kts 301°
2026-05-07 16:08 53.63515 -8.10881 27908 ft 487 kts 301°
2026-05-07 16:08 53.65387 -8.15643 27914 ft 487 kts 301°
2026-05-07 16:09 53.67253 -8.20402 27916 ft 487 kts 301°
2026-05-07 16:09 53.69122 -8.25174 27913 ft 487 kts 301°
2026-05-07 16:09 53.70983 -8.29937 27914 ft 487 kts 300°
2026-05-07 16:09 53.72850 -8.34722 27907 ft 487 kts 300°
2026-05-07 16:10 53.74707 -8.39492 27913 ft 486 kts 300°
2026-05-07 16:10 53.76566 -8.44276 27910 ft 486 kts 301°
2026-05-07 16:10 53.78396 -8.48997 27912 ft 486 kts 300°
2026-05-07 16:10 53.80274 -8.53848 27912 ft 486 kts 300°
2026-05-07 16:11 53.82098 -8.58568 27911 ft 486 kts 300°
2026-05-07 16:11 53.83951 -8.63375 27916 ft 486 kts 300°
2026-05-07 16:11 53.85802 -8.68183 27913 ft 486 kts 300°
2026-05-07 16:11 53.87644 -8.72979 27911 ft 485 kts 300°
2026-05-07 16:12 53.89486 -8.77782 27915 ft 485 kts 300°
2026-05-07 16:12 53.91319 -8.82574 27916 ft 485 kts 300°
2026-05-07 16:12 53.93132 -8.87319 27911 ft 485 kts 300°
2026-05-07 16:12 53.94987 -8.92187 27912 ft 484 kts 300°
2026-05-07 16:13 53.96788 -8.96921 27924 ft 484 kts 300°
2026-05-07 16:13 53.98617 -9.01735 27907 ft 484 kts 300°
2026-05-07 16:13 54.00440 -9.06547 27912 ft 484 kts 300°
2026-05-07 16:13 54.02259 -9.11355 27915 ft 484 kts 300°
2026-05-07 16:14 54.04075 -9.16165 27907 ft 484 kts 300°
2026-05-07 16:14 54.05890 -9.20983 27910 ft 483 kts 300°
2026-05-07 16:14 54.07706 -9.25810 27917 ft 483 kts 300°
2026-05-07 16:14 54.09516 -9.30633 27912 ft 483 kts 300°
2026-05-07 16:15 54.11325 -9.35461 27915 ft 483 kts 300°
2026-05-07 16:15 54.13132 -9.40292 27912 ft 483 kts 300°
2026-05-07 16:15 54.14932 -9.45116 27912 ft 482 kts 300°
2026-05-07 16:15 54.16735 -9.49957 27918 ft 482 kts 300°
2026-05-07 16:16 54.18530 -9.54787 27920 ft 482 kts 300°
2026-05-07 16:16 54.20325 -9.59626 27914 ft 482 kts 300°
2026-05-07 16:16 54.22116 -9.64461 27917 ft 482 kts 300°
2026-05-07 16:16 54.23906 -9.69305 27915 ft 482 kts 300°
2026-05-07 16:17 54.25693 -9.74150 27923 ft 481 kts 300°
2026-05-07 16:17 54.27480 -9.79005 27916 ft 481 kts 300°
2026-05-07 16:17 54.29238 -9.83790 27918 ft 481 kts 300°
2026-05-07 16:17 54.31022 -9.88655 27915 ft 481 kts 300°
2026-05-07 16:18 54.32796 -9.93500 27922 ft 481 kts 299°
2026-05-07 16:18 54.34572 -9.98363 27915 ft 481 kts 299°
2026-05-07 16:18 54.36343 -10.03223 27920 ft 480 kts 299°
2026-05-07 16:18 54.38114 -10.08089 27919 ft 480 kts 299°
2026-05-07 16:19 54.39879 -10.12950 27920 ft 480 kts 299°
2026-05-07 16:19 54.41638 -10.17804 27914 ft 480 kts 299°
2026-05-07 16:19 54.43399 -10.22673 27917 ft 479 kts 299°
2026-05-07 16:19 54.45153 -10.27532 27917 ft 479 kts 299°
2026-05-07 16:20 54.46911 -10.32411 27915 ft 479 kts 299°
2026-05-07 16:20 54.48662 -10.37284 27913 ft 479 kts 299°
2026-05-07 16:20 54.50411 -10.42156 27913 ft 479 kts 299°
2026-05-07 16:20 54.52156 -10.47030 27915 ft 478 kts 298°
2026-05-07 16:21 54.53881 -10.51854 27913 ft 478 kts 298°
2026-05-07 16:21 54.55620 -10.56729 27905 ft 478 kts 298°
2026-05-07 16:21 54.57360 -10.61617 27909 ft 478 kts 298°
2026-05-07 16:21 54.59096 -10.66503 27914 ft 478 kts 298°
2026-05-07 16:22 54.60828 -10.71386 27889 ft 477 kts 298°
2026-05-07 16:22 54.62558 -10.76274 27914 ft 477 kts 298°
2026-05-07 16:22 54.63704 -10.79521 27913 ft 477 kts 298°
2026-05-07 16:22 54.65430 -10.84412 27898 ft 477 kts 298°
2026-05-07 16:23 54.67152 -10.89303 27916 ft 476 kts 298°
2026-05-07 16:23 54.68875 -10.94207 27899 ft 476 kts 298°
2026-05-07 16:23 54.70594 -10.99110 27918 ft 476 kts 298°
2026-05-07 16:23 54.72306 -11.04003 27897 ft 476 kts 298°
2026-05-07 16:24 54.74019 -11.08909 27896 ft 476 kts 298°
2026-05-07 16:24 54.75728 -11.13813 27913 ft 476 kts 297°
2026-05-07 16:24 54.77436 -11.18721 27900 ft 475 kts 297°
2026-05-07 16:24 54.79140 -11.23630 27899 ft 475 kts 297°
2026-05-07 16:25 54.80843 -11.28546 27902 ft 475 kts 297°
2026-05-07 16:25 54.82522 -11.33403 27903 ft 475 kts 297°
2026-05-07 16:25 54.84220 -11.38325 27900 ft 475 kts 297°
2026-05-07 16:25 54.85913 -11.43241 27898 ft 474 kts 297°
2026-05-07 16:26 54.87603 -11.48157 27903 ft 474 kts 297°
2026-05-07 16:26 54.89289 -11.53074 27898 ft 474 kts 297°
2026-05-07 16:26 54.90973 -11.57993 27898 ft 473 kts 297°
2026-05-07 16:26 54.92655 -11.62917 27899 ft 473 kts 297°
2026-05-07 16:27 54.94331 -11.67832 27901 ft 473 kts 297°
2026-05-07 16:27 54.96010 -11.72767 27898 ft 473 kts 297°
2026-05-07 16:27 54.97680 -11.77685 27899 ft 472 kts 297°
2026-05-07 16:27 54.99350 -11.82616 27901 ft 472 kts 297°
2026-05-07 16:28 55.01006 -11.87512 27903 ft 472 kts 297°
2026-05-07 16:28 55.02681 -11.92475 27901 ft 472 kts 297°
2026-05-07 16:28 55.04341 -11.97403 27902 ft 471 kts 297°
2026-05-07 16:28 55.05998 -12.02333 27900 ft 471 kts 297°
2026-05-07 16:29 55.07656 -12.07275 27901 ft 471 kts 296°
2026-05-07 16:29 55.09307 -12.12209 27899 ft 471 kts 296°
2026-05-07 16:29 55.10958 -12.17150 27894 ft 470 kts 296°
2026-05-07 16:29 55.12601 -12.22079 27898 ft 470 kts 296°
2026-05-07 16:30 55.14244 -12.27015 27895 ft 470 kts 296°
2026-05-07 16:30 55.15864 -12.31894 27899 ft 469 kts 296°
2026-05-07 16:30 55.17503 -12.36842 27893 ft 469 kts 296°
2026-05-07 16:30 55.19135 -12.41778 27899 ft 469 kts 296°
2026-05-07 16:31 55.20770 -12.46732 27898 ft 469 kts 296°
2026-05-07 16:31 55.22400 -12.51682 27898 ft 469 kts 296°
2026-05-07 16:31 55.24028 -12.56635 27895 ft 468 kts 296°
2026-05-07 16:31 55.25637 -12.61540 27901 ft 468 kts 296°
2026-05-07 16:32 55.27255 -12.66485 27901 ft 468 kts 296°
2026-05-07 16:32 55.28872 -12.71433 27907 ft 468 kts 296°
2026-05-07 16:32 55.30489 -12.76392 27897 ft 467 kts 296°
2026-05-07 16:32 55.32100 -12.81346 27901 ft 467 kts 296°
2026-05-07 16:33 55.33711 -12.86308 27901 ft 467 kts 296°
2026-05-07 16:33 55.35318 -12.91268 27899 ft 466 kts 296°
2026-05-07 16:33 55.36921 -12.96226 27899 ft 466 kts 296°
2026-05-07 16:33 55.38523 -13.01191 27906 ft 466 kts 296°
2026-05-07 16:34 55.40117 -13.06143 27903 ft 465 kts 295°
2026-05-07 16:34 55.41710 -13.11099 27901 ft 465 kts 295°
2026-05-07 16:34 55.43300 -13.16059 27900 ft 465 kts 295°
2026-05-07 16:34 55.44890 -13.21027 27904 ft 465 kts 295°
2026-05-07 16:35 55.46473 -13.25985 27903 ft 464 kts 295°
2026-05-07 16:35 55.48055 -13.30950 27902 ft 464 kts 295°
2026-05-07 16:35 55.49613 -13.35849 27904 ft 464 kts 295°
2026-05-07 16:35 55.51188 -13.40810 27908 ft 463 kts 295°
2026-05-07 16:36 55.52760 -13.45775 27907 ft 463 kts 295°
2026-05-07 16:36 55.54329 -13.50741 27910 ft 463 kts 295°
2026-05-07 16:36 55.55897 -13.55712 27909 ft 462 kts 295°
2026-05-07 16:36 55.57457 -13.60667 27914 ft 462 kts 295°
2026-05-07 16:37 55.59017 -13.65633 27911 ft 461 kts 295°
2026-05-07 16:37 55.60574 -13.70602 27910 ft 461 kts 295°
2026-05-07 16:37 55.62122 -13.75550 27904 ft 460 kts 295°
2026-05-07 16:37 55.63669 -13.80508 27911 ft 460 kts 295°
2026-05-07 16:38 55.65221 -13.85491 27913 ft 460 kts 295°
2026-05-07 16:38 55.66763 -13.90452 27912 ft 460 kts 295°
2026-05-07 16:38 55.68305 -13.95424 27912 ft 460 kts 295°
2026-05-07 16:38 55.69846 -14.00403 27915 ft 460 kts 295°
2026-05-07 16:39 55.71359 -14.05302 27917 ft 459 kts 295°
2026-05-07 16:39 55.72895 -14.10282 27916 ft 459 kts 295°
2026-05-07 16:39 55.74424 -14.15255 27913 ft 459 kts 295°
2026-05-07 16:39 55.75950 -14.20225 27921 ft 459 kts 295°
2026-05-07 16:40 55.77476 -14.25209 27925 ft 459 kts 295°
2026-05-07 16:40 55.78998 -14.30188 27921 ft 458 kts 295°
2026-05-07 16:40 55.80518 -14.35170 27923 ft 458 kts 295°
2026-05-07 16:40 55.82034 -14.40151 27925 ft 458 kts 295°
2026-05-07 16:41 55.83548 -14.45138 27926 ft 458 kts 295°
2026-05-07 16:41 55.85058 -14.50120 27922 ft 458 kts 295°
2026-05-07 16:41 55.86568 -14.55113 27924 ft 457 kts 295°
2026-05-07 16:41 55.88075 -14.60104 27930 ft 457 kts 295°
2026-05-07 16:42 55.89578 -14.65095 27930 ft 457 kts 294°
2026-05-07 16:42 55.91080 -14.70093 27921 ft 457 kts 294°
2026-05-07 16:42 55.92580 -14.75095 27931 ft 457 kts 294°
2026-05-07 16:42 55.94076 -14.80097 27937 ft 457 kts 294°
2026-05-07 16:43 55.95572 -14.85104 27935 ft 457 kts 294°
2026-05-07 16:43 55.97063 -14.90105 27926 ft 457 kts 294°
2026-05-07 16:43 55.98549 -14.95100 27933 ft 457 kts 294°
2026-05-07 16:43 55.99996 -15.00080 27940 ft 456 kts 292°
2026-05-07 16:44 56.01240 -15.05275 27941 ft 454 kts 289°
2026-05-07 16:44 56.02412 -15.10519 27940 ft 454 kts 289°
2026-05-07 16:44 56.03578 -15.15778 27941 ft 454 kts 289°
2026-05-07 16:44 56.04743 -15.21035 27943 ft 455 kts 289°
2026-05-07 16:45 56.05906 -15.26286 27944 ft 455 kts 289°
2026-05-07 16:45 56.07072 -15.31544 27938 ft 455 kts 289°
2026-05-07 16:45 56.08239 -15.36808 27940 ft 454 kts 289°
2026-05-07 16:45 56.09403 -15.42061 27953 ft 454 kts 289°
2026-05-07 16:46 56.10569 -15.47337 27951 ft 455 kts 289°
2026-05-07 16:46 56.11730 -15.52600 27943 ft 455 kts 289°
2026-05-07 16:46 56.12891 -15.57876 27948 ft 455 kts 289°
2026-05-07 16:46 56.14050 -15.63157 27959 ft 455 kts 289°
2026-05-07 16:47 56.15208 -15.68449 27954 ft 455 kts 289°
2026-05-07 16:47 56.16346 -15.73661 27947 ft 455 kts 289°
2026-05-07 16:47 56.17495 -15.78939 27957 ft 454 kts 289°
2026-05-07 16:47 56.18643 -15.84225 27961 ft 454 kts 289°
2026-05-07 16:48 56.19789 -15.89518 27963 ft 454 kts 289°
2026-05-07 16:48 56.20935 -15.94821 27955 ft 454 kts 289°
2026-05-07 16:48 56.22076 -16.00114 27963 ft 454 kts 289°
2026-05-07 16:48 56.23215 -16.05416 27967 ft 454 kts 289°
2026-05-07 16:49 56.24352 -16.10719 27968 ft 454 kts 288°
2026-05-07 16:49 56.25486 -16.16022 27957 ft 454 kts 288°
2026-05-07 16:49 56.26617 -16.21322 27964 ft 454 kts 288°
2026-05-07 16:49 56.27748 -16.26639 27973 ft 454 kts 288°
2026-05-07 16:50 56.28861 -16.31888 27975 ft 454 kts 288°
2026-05-07 16:50 56.29987 -16.37206 27965 ft 454 kts 288°
2026-05-07 16:50 56.31108 -16.42520 27969 ft 454 kts 288°
2026-05-07 16:50 56.32227 -16.47834 27976 ft 454 kts 288°
2026-05-07 16:51 56.33343 -16.53149 27984 ft 454 kts 288°
2026-05-07 16:51 56.34460 -16.58484 27973 ft 454 kts 288°
2026-05-07 16:51 56.35571 -16.63802 27977 ft 454 kts 288°
2026-05-07 16:51 56.36682 -16.69136 27984 ft 454 kts 288°
2026-05-07 16:52 56.37791 -16.74472 27986 ft 454 kts 288°
2026-05-07 16:52 56.38894 -16.79798 27976 ft 454 kts 288°
2026-05-07 16:52 56.39999 -16.85142 27989 ft 454 kts 288°
2026-05-07 16:52 56.41099 -16.90481 27992 ft 454 kts 288°
2026-05-07 16:53 56.42197 -16.95821 27997 ft 454 kts 288°
2026-05-07 16:53 56.43293 -17.01169 27986 ft 454 kts 288°
2026-05-07 16:53 56.44385 -17.06507 27993 ft 453 kts 288°
2026-05-07 16:53 56.45477 -17.11860 27997 ft 453 kts 288°
2026-05-07 16:54 56.46566 -17.17215 28001 ft 453 kts 288°
2026-05-07 16:54 56.47652 -17.22571 27996 ft 453 kts 288°
2026-05-07 16:54 56.48721 -17.27853 28001 ft 453 kts 288°
2026-05-07 16:55 56.50878 -17.38559 28009 ft 453 kts 288°
2026-05-07 16:55 56.51958 -17.43942 27998 ft 453 kts 288°
2026-05-07 16:55 56.53029 -17.49294 28003 ft 453 kts 288°
2026-05-07 16:56 56.55167 -17.60025 28011 ft 452 kts 288°
2026-05-07 16:56 56.58357 -17.76138 28018 ft 452 kts 287°
2026-05-07 16:57 56.60469 -17.86884 28014 ft 452 kts 287°
2026-05-07 16:57 56.62570 -17.97628 28025 ft 452 kts 287°
2026-05-07 16:58 56.64662 -18.08388 28020 ft 452 kts 287°
2026-05-07 16:58 56.66730 -18.19084 28037 ft 451 kts 287°
2026-05-07 16:59 56.68802 -18.29859 28029 ft 451 kts 287°
2026-05-07 16:59 56.70864 -18.40642 28044 ft 451 kts 287°
2026-05-07 17:00 56.72913 -18.51423 28030 ft 450 kts 287°
2026-05-07 17:00 56.74952 -18.62207 28049 ft 450 kts 287°
2026-05-07 17:01 56.76981 -18.72996 28036 ft 450 kts 286°
2026-05-07 17:01 56.78995 -18.83775 28051 ft 449 kts 286°
2026-05-07 17:02 56.81000 -18.94558 28075 ft 449 kts 286°
2026-05-07 17:02 56.82999 -19.05375 28066 ft 449 kts 286°
2026-05-07 17:03 56.84988 -19.16199 28072 ft 449 kts 286°
2026-05-07 17:03 56.86969 -19.27044 28072 ft 450 kts 286°
2026-05-07 17:04 56.88928 -19.37828 28083 ft 450 kts 285°
2026-05-07 17:04 56.90901 -19.48757 28078 ft 450 kts 285°
2026-05-07 17:05 56.92843 -19.59574 28088 ft 450 kts 285°
2026-05-07 17:05 56.94784 -19.70450 28085 ft 450 kts 285°
2026-05-07 17:06 56.96718 -19.81351 28097 ft 450 kts 285°
2026-05-07 17:06 56.98645 -19.92267 28093 ft 450 kts 285°
2026-05-07 17:07 57.00485 -20.03217 28097 ft 448 kts 283°
2026-05-07 17:07 57.02065 -20.14309 28095 ft 449 kts 282°
2026-05-07 17:08 57.03619 -20.25410 28104 ft 449 kts 282°
2026-05-07 17:08 57.05171 -20.36520 28105 ft 449 kts 282°
2026-05-07 17:09 57.06720 -20.47642 28114 ft 449 kts 282°
2026-05-07 17:09 57.08003 -20.56896 28113 ft 449 kts 282°
2026-05-07 17:10 57.09785 -20.69854 28114 ft 449 kts 282°
2026-05-07 17:10 57.11062 -20.79207 28127 ft 450 kts 282°
2026-05-07 17:11 57.12578 -20.90380 28118 ft 450 kts 282°
2026-05-07 17:11 57.14073 -21.01488 28127 ft 450 kts 282°
2026-05-07 17:12 57.15570 -21.12689 28125 ft 450 kts 282°
2026-05-07 17:12 57.17058 -21.23912 28134 ft 450 kts 282°
2026-05-07 17:13 57.18536 -21.35137 28136 ft 450 kts 282°
2026-05-07 17:13 57.20004 -21.46378 28138 ft 451 kts 282°
2026-05-07 17:14 57.21462 -21.57623 28140 ft 451 kts 282°
2026-05-07 17:14 57.22901 -21.68813 28143 ft 451 kts 282°
2026-05-07 17:15 57.24340 -21.80086 28149 ft 451 kts 282°
2026-05-07 17:15 57.25771 -21.91380 28153 ft 452 kts 282°
2026-05-07 17:16 57.27192 -22.02688 28152 ft 452 kts 282°
2026-05-07 17:16 57.28603 -22.14009 28153 ft 452 kts 282°
2026-05-07 17:17 57.30007 -22.25360 28162 ft 452 kts 282°
2026-05-07 17:17 57.31398 -22.36705 28165 ft 452 kts 282°
2026-05-07 17:18 57.32780 -22.48056 28162 ft 452 kts 282°
2026-05-07 17:18 57.34144 -22.59365 28167 ft 453 kts 282°
2026-05-07 17:19 57.35510 -22.70774 28170 ft 453 kts 281°
2026-05-07 17:19 57.36866 -22.82196 28173 ft 454 kts 282°
2026-05-07 17:20 57.38211 -22.93624 28179 ft 454 kts 281°
2026-05-07 17:20 57.39546 -23.05059 28176 ft 454 kts 281°
2026-05-07 17:21 57.40873 -23.16520 28179 ft 454 kts 281°
2026-05-07 17:21 57.42180 -23.27911 28177 ft 455 kts 281°
2026-05-07 17:22 57.43489 -23.39419 28176 ft 455 kts 281°
2026-05-07 17:22 57.44785 -23.50915 28190 ft 455 kts 281°
2026-05-07 17:23 57.46074 -23.62447 28187 ft 456 kts 281°
2026-05-07 17:23 57.47353 -23.73993 28196 ft 456 kts 281°
2026-05-07 17:24 57.48625 -23.85579 28529 ft 458 kts 281°
2026-05-07 17:24 57.49248 -23.91292 28935 ft 456 kts 281°
2026-05-07 17:24 57.49874 -23.97055 29383 ft 454 kts 281°
2026-05-07 17:25 57.50496 -24.02805 29765 ft 453 kts 281°
2026-05-07 17:25 57.51112 -24.08537 30119 ft 452 kts 281°
2026-05-07 17:25 57.51726 -24.14273 30390 ft 453 kts 281°
2026-05-07 17:25 57.52339 -24.20019 30625 ft 453 kts 281°
2026-05-07 17:26 57.52949 -24.25773 30880 ft 453 kts 281°
2026-05-07 17:26 57.53557 -24.31524 31131 ft 453 kts 281°
2026-05-07 17:26 57.54162 -24.37286 31366 ft 453 kts 281°
2026-05-07 17:26 57.54765 -24.43045 31594 ft 454 kts 281°
2026-05-07 17:27 57.55366 -24.48816 31820 ft 453 kts 281°
2026-05-07 17:27 57.55964 -24.54583 32058 ft 453 kts 281°
2026-05-07 17:27 57.57154 -24.66147 32179 ft 454 kts 281°
2026-05-07 17:28 57.58333 -24.77714 32212 ft 454 kts 281°
2026-05-07 17:28 57.59504 -24.89323 32345 ft 460 kts 284°
2026-05-07 17:29 57.60682 -25.01071 32248 ft 467 kts 284°
2026-05-07 17:29 57.61861 -25.12989 32223 ft 467 kts 284°
2026-05-07 17:30 57.63026 -25.24894 32223 ft 466 kts 284°
2026-05-07 17:30 57.64179 -25.36785 32230 ft 466 kts 284°
2026-05-07 17:31 57.65322 -25.48703 32228 ft 466 kts 284°
2026-05-07 17:31 57.66453 -25.60609 32235 ft 466 kts 284°
2026-05-07 17:32 57.67573 -25.72525 32239 ft 465 kts 283°
2026-05-07 17:32 57.68674 -25.84366 32239 ft 465 kts 283°
2026-05-07 17:33 57.69769 -25.96271 32244 ft 465 kts 283°
2026-05-07 17:33 57.70857 -26.08228 32246 ft 464 kts 283°
2026-05-07 17:34 57.71929 -26.20142 32249 ft 464 kts 283°
2026-05-07 17:34 57.72989 -26.32048 32252 ft 464 kts 283°
2026-05-07 17:35 57.74037 -26.43959 32253 ft 464 kts 283°
2026-05-07 17:35 57.75067 -26.55795 32253 ft 463 kts 283°
2026-05-07 17:36 57.76093 -26.67711 32262 ft 463 kts 283°
2026-05-07 17:36 57.77105 -26.79620 32263 ft 463 kts 283°
2026-05-07 17:37 57.78108 -26.91539 32266 ft 462 kts 283°
2026-05-07 17:37 57.79097 -27.03446 32269 ft 462 kts 283°
2026-05-07 17:38 57.80075 -27.15356 32265 ft 462 kts 283°
2026-05-07 17:38 57.81042 -27.27273 32278 ft 462 kts 283°
2026-05-07 17:39 57.81996 -27.39176 32276 ft 462 kts 283°
2026-05-07 17:39 57.82939 -27.51095 32282 ft 462 kts 283°
2026-05-07 17:40 57.83870 -27.63004 32284 ft 461 kts 283°
2026-05-07 17:40 57.84791 -27.74933 32287 ft 461 kts 283°
2026-05-07 17:41 57.85700 -27.86858 32291 ft 461 kts 282°
2026-05-07 17:41 57.86593 -27.98713 32292 ft 461 kts 282°
2026-05-07 17:42 57.87479 -28.10640 32291 ft 461 kts 282°
2026-05-07 17:42 57.88355 -28.22586 32296 ft 461 kts 282°
2026-05-07 17:43 57.89218 -28.34523 32292 ft 461 kts 282°
2026-05-07 17:43 57.90070 -28.46467 32294 ft 460 kts 282°
2026-05-07 17:44 57.90910 -28.58394 32300 ft 460 kts 282°
2026-05-07 17:44 57.91735 -28.70273 32295 ft 460 kts 282°
2026-05-07 17:45 57.92553 -28.82225 32308 ft 460 kts 282°
2026-05-07 17:45 57.93359 -28.94163 32306 ft 460 kts 282°
2026-05-07 17:46 57.94153 -29.06101 32299 ft 459 kts 282°
2026-05-07 17:46 57.94930 -29.17961 32316 ft 459 kts 282°
2026-05-07 17:47 57.95701 -29.29897 32317 ft 458 kts 282°
2026-05-07 17:47 57.96460 -29.41819 32320 ft 458 kts 282°
2026-05-07 17:48 57.97206 -29.53711 32325 ft 457 kts 282°
2026-05-07 17:48 57.97940 -29.65614 32327 ft 457 kts 282°
2026-05-07 17:49 57.98663 -29.77501 32327 ft 456 kts 282°
2026-05-07 17:49 57.99377 -29.89401 32325 ft 456 kts 282°
2026-05-07 17:50 58.00181 -30.01141 32328 ft 451 kts 287°
2026-05-07 17:50 58.01749 -30.12601 32337 ft 448 kts 290°
2026-05-07 17:51 58.03363 -30.23865 32340 ft 448 kts 290°
2026-05-07 17:51 58.04965 -30.35217 32343 ft 447 kts 290°
2026-05-07 17:52 58.06545 -30.46563 32342 ft 447 kts 290°
2026-05-07 17:52 58.08112 -30.57913 32348 ft 446 kts 290°
2026-05-07 17:53 58.09667 -30.69263 32350 ft 445 kts 290°
2026-05-07 17:53 58.11209 -30.80606 32354 ft 444 kts 290°
2026-05-07 17:54 58.12726 -30.91842 32352 ft 443 kts 290°
2026-05-07 17:54 58.14243 -31.03159 32352 ft 443 kts 290°
2026-05-07 17:55 58.15746 -31.14454 32350 ft 442 kts 290°
2026-05-07 17:55 58.17236 -31.25738 32357 ft 441 kts 290°
2026-05-07 17:56 58.18715 -31.37019 32369 ft 440 kts 290°
2026-05-07 17:56 58.20178 -31.48273 32362 ft 439 kts 291°
2026-05-07 17:57 58.21385 -31.57615 32365 ft 439 kts 291°
2026-05-07 17:57 58.23071 -31.70765 32362 ft 438 kts 291°
2026-05-07 17:58 58.24488 -31.81919 32360 ft 437 kts 291°
2026-05-07 17:58 58.25902 -31.93124 32363 ft 436 kts 291°
2026-05-07 17:59 58.27304 -32.04321 32365 ft 435 kts 291°
2026-05-07 17:59 58.28459 -32.13618 32367 ft 434 kts 291°
2026-05-07 18:00 58.29839 -32.24800 32374 ft 434 kts 291°
2026-05-07 18:00 58.31208 -32.35983 32384 ft 433 kts 291°
2026-05-07 18:01 58.32566 -32.47165 32377 ft 432 kts 291°
2026-05-07 18:01 58.33907 -32.58299 32372 ft 431 kts 291°
2026-05-07 18:02 58.35892 -32.74931 32378 ft 431 kts 291°
2026-05-07 18:03 58.37208 -32.86067 32384 ft 430 kts 290°
2026-05-07 18:03 58.38511 -32.97193 32378 ft 430 kts 290°
2026-05-07 18:04 58.39804 -33.08315 32377 ft 429 kts 290°
2026-05-07 18:04 58.41085 -33.19434 32379 ft 429 kts 290°
2026-05-07 18:05 58.42358 -33.30565 32384 ft 429 kts 290°
2026-05-07 18:05 58.43609 -33.41604 32387 ft 428 kts 290°
2026-05-07 18:06 58.44860 -33.52730 32387 ft 428 kts 289°
2026-05-07 18:06 58.46100 -33.63853 32387 ft 428 kts 289°
2026-05-07 18:07 58.47328 -33.74968 32402 ft 428 kts 289°
2026-05-07 18:07 58.48549 -33.86099 32381 ft 428 kts 289°
2026-05-07 18:08 58.49762 -33.97265 32393 ft 429 kts 288°
2026-05-07 18:08 58.50967 -34.08450 32386 ft 430 kts 288°
2026-05-07 18:09 58.52165 -34.19675 32383 ft 431 kts 288°
2026-05-07 18:09 58.53355 -34.30920 32386 ft 431 kts 288°
2026-05-07 18:10 58.54537 -34.42190 32387 ft 432 kts 288°
2026-05-07 18:10 58.55703 -34.53414 32388 ft 433 kts 287°
2026-05-07 18:11 58.56869 -34.64739 32392 ft 433 kts 287°
2026-05-07 18:11 58.58026 -34.76073 32401 ft 434 kts 287°
2026-05-07 18:12 58.59174 -34.87429 32391 ft 434 kts 287°
2026-05-07 18:12 58.60314 -34.98818 32387 ft 435 kts 287°
2026-05-07 18:13 58.61445 -35.10219 32384 ft 435 kts 287°
2026-05-07 18:13 58.62565 -35.21626 32382 ft 435 kts 286°
2026-05-07 18:14 58.63676 -35.33050 32384 ft 436 kts 286°
2026-05-07 18:14 58.64779 -35.44495 32384 ft 436 kts 286°
2026-05-07 18:15 58.65865 -35.55883 32385 ft 436 kts 286°
2026-05-07 18:15 58.66948 -35.67352 32384 ft 436 kts 285°
2026-05-07 18:16 58.68021 -35.78827 32382 ft 436 kts 285°
2026-05-07 18:16 58.69084 -35.90312 32388 ft 436 kts 285°
2026-05-07 18:17 58.70138 -36.01818 32385 ft 436 kts 285°
2026-05-07 18:17 58.71178 -36.13289 32383 ft 437 kts 285°
2026-05-07 18:18 58.72211 -36.24806 32380 ft 437 kts 284°
2026-05-07 18:18 58.73234 -36.36323 32383 ft 437 kts 284°
2026-05-07 18:19 58.74247 -36.47859 32385 ft 437 kts 284°
2026-05-07 18:19 58.75243 -36.59322 32377 ft 437 kts 284°
2026-05-07 18:20 58.76235 -36.70867 32378 ft 436 kts 283°
2026-05-07 18:20 58.77216 -36.82410 32374 ft 436 kts 283°
2026-05-07 18:21 58.78189 -36.93979 32379 ft 437 kts 283°
2026-05-07 18:21 58.79150 -37.05541 32378 ft 437 kts 283°
2026-05-07 18:22 58.80101 -37.17112 32371 ft 437 kts 283°
2026-05-07 18:22 58.81043 -37.28713 32371 ft 437 kts 283°
2026-05-07 18:23 58.81974 -37.40307 32370 ft 437 kts 282°
2026-05-07 18:23 58.82896 -37.51924 32373 ft 438 kts 282°
2026-05-07 18:24 58.83808 -37.63549 32374 ft 438 kts 282°
2026-05-07 18:24 58.84703 -37.75103 32373 ft 438 kts 282°
2026-05-07 18:25 58.85595 -37.86754 32366 ft 438 kts 282°
2026-05-07 18:25 58.86476 -37.98409 32366 ft 438 kts 281°
2026-05-07 18:26 58.87349 -38.10093 32365 ft 439 kts 281°
2026-05-07 18:26 58.88210 -38.21774 32364 ft 439 kts 281°
2026-05-07 18:27 58.89061 -38.33473 32359 ft 439 kts 281°
2026-05-07 18:27 58.89897 -38.45098 32361 ft 439 kts 281°
2026-05-07 18:28 58.90728 -38.56814 32360 ft 439 kts 281°
2026-05-07 18:28 58.91548 -38.68534 32357 ft 439 kts 280°
2026-05-07 18:29 58.92358 -38.80267 32358 ft 440 kts 280°
2026-05-07 18:29 58.93157 -38.92003 32355 ft 440 kts 280°
2026-05-07 18:30 58.93947 -39.03751 32352 ft 440 kts 280°
2026-05-07 18:30 58.94725 -39.15506 32350 ft 440 kts 279°
2026-05-07 18:31 58.95493 -39.27268 32347 ft 440 kts 279°
2026-05-07 18:31 58.96251 -39.39043 32346 ft 440 kts 279°
2026-05-07 18:32 58.96995 -39.50762 32347 ft 441 kts 279°
2026-05-07 18:32 58.97733 -39.62572 32341 ft 441 kts 278°
2026-05-07 18:33 58.98459 -39.74373 32343 ft 441 kts 278°
2026-05-07 18:33 58.99178 -39.86192 32340 ft 441 kts 278°
2026-05-07 18:34 58.99908 -39.98003 32346 ft 441 kts 280°
2026-05-07 18:34 59.01313 -40.09554 32346 ft 440 kts 286°
2026-05-07 18:35 59.02951 -40.21020 32344 ft 441 kts 286°
2026-05-07 18:35 59.04567 -40.32500 32324 ft 441 kts 285°
2026-05-07 18:36 59.06167 -40.44010 32334 ft 441 kts 285°
2026-05-07 18:36 59.07756 -40.55545 32335 ft 442 kts 285°
2026-05-07 18:37 59.09325 -40.67026 32331 ft 442 kts 285°
2026-05-07 18:37 59.10895 -40.78595 32328 ft 442 kts 285°
2026-05-07 18:38 59.12457 -40.90186 32326 ft 443 kts 285°
2026-05-07 18:38 59.14008 -41.01792 32320 ft 443 kts 284°
2026-05-07 18:39 59.15553 -41.13429 32316 ft 443 kts 284°
2026-05-07 18:39 59.17080 -41.25028 32315 ft 444 kts 284°
2026-05-07 18:40 59.18603 -41.36687 32317 ft 444 kts 284°
2026-05-07 18:40 59.20120 -41.48386 32311 ft 445 kts 284°
2026-05-07 18:41 59.21626 -41.60093 32308 ft 445 kts 284°
2026-05-07 18:41 59.23126 -41.71844 32301 ft 445 kts 283°
2026-05-07 18:42 59.24605 -41.83522 32305 ft 446 kts 283°
2026-05-07 18:42 59.26087 -41.95321 32309 ft 446 kts 283°
2026-05-07 18:43 59.27556 -42.07114 32313 ft 447 kts 283°
2026-05-07 18:43 59.29018 -42.18945 32293 ft 447 kts 283°
2026-05-07 18:44 59.30470 -42.30789 32295 ft 448 kts 283°
2026-05-07 18:44 59.31906 -42.42605 32281 ft 448 kts 283°
2026-05-07 18:45 59.33340 -42.54497 32281 ft 449 kts 283°
2026-05-07 18:45 59.34765 -42.66416 32291 ft 449 kts 282°
2026-05-07 18:46 59.36180 -42.78356 32289 ft 450 kts 282°
2026-05-07 18:46 59.37350 -42.88304 32289 ft 450 kts 282°
2026-05-07 18:47 59.38749 -43.00294 32274 ft 451 kts 282°
2026-05-07 18:47 59.40139 -43.12315 32295 ft 451 kts 282°
2026-05-07 18:48 59.41519 -43.24352 32280 ft 452 kts 282°
2026-05-07 18:48 59.42881 -43.36342 32262 ft 452 kts 282°
2026-05-07 18:49 59.44245 -43.48450 32271 ft 453 kts 282°
2026-05-07 18:49 59.45598 -43.60571 32270 ft 453 kts 282°
2026-05-07 18:50 59.46931 -43.72623 32267 ft 454 kts 281°
2026-05-07 18:50 59.48263 -43.84784 32265 ft 454 kts 281°
2026-05-07 18:51 59.49585 -43.96962 32259 ft 455 kts 281°
2026-05-07 18:51 59.50895 -44.09140 32261 ft 455 kts 281°
2026-05-07 18:52 59.52196 -44.21344 32246 ft 456 kts 281°
2026-05-07 18:52 59.53483 -44.33541 32253 ft 456 kts 281°
2026-05-07 18:53 59.54765 -44.45816 32251 ft 456 kts 281°
2026-05-07 18:53 59.56036 -44.58093 32235 ft 457 kts 281°
2026-05-07 18:54 59.57289 -44.70314 32231 ft 457 kts 280°
2026-05-07 18:54 59.58536 -44.82606 32235 ft 457 kts 280°
2026-05-07 18:55 59.59772 -44.94905 32229 ft 456 kts 280°
2026-05-07 18:55 59.60991 -45.07154 32217 ft 454 kts 280°
2026-05-07 18:56 59.62199 -45.19434 32222 ft 456 kts 280°
2026-05-07 18:56 59.63390 -45.31650 32218 ft 454 kts 279°
2026-05-07 18:57 59.64573 -45.43915 32207 ft 455 kts 279°
2026-05-07 18:57 59.65747 -45.56217 32199 ft 455 kts 279°
2026-05-07 18:58 59.66910 -45.68535 32207 ft 455 kts 279°
2026-05-07 18:58 59.68060 -45.80833 32200 ft 453 kts 279°
2026-05-07 18:59 59.69195 -45.93115 32193 ft 454 kts 279°
2026-05-07 18:59 59.70319 -46.05413 32186 ft 453 kts 279°
2026-05-07 19:00 59.71434 -46.17730 32183 ft 453 kts 278°
2026-05-07 19:00 59.72524 -46.29897 32201 ft 452 kts 278°
2026-05-07 19:01 59.73610 -46.42195 32173 ft 451 kts 278°
2026-05-07 19:01 59.74681 -46.54436 32191 ft 453 kts 278°
2026-05-07 19:02 59.75749 -46.66783 32162 ft 451 kts 278°
2026-05-07 19:02 59.76791 -46.78958 32174 ft 453 kts 277°
2026-05-07 19:03 59.77835 -46.91316 32163 ft 454 kts 277°
2026-05-07 19:03 59.78867 -47.03670 32164 ft 452 kts 277°
2026-05-07 19:04 59.79885 -47.15999 32159 ft 452 kts 277°
2026-05-07 19:04 59.80890 -47.28324 32157 ft 452 kts 277°
2026-05-07 19:05 59.81878 -47.40578 32154 ft 452 kts 277°
2026-05-07 19:05 59.82863 -47.52950 32146 ft 452 kts 277°
2026-05-07 19:06 59.83835 -47.65316 32149 ft 452 kts 276°
2026-05-07 19:06 59.85267 -47.83827 32137 ft 452 kts 276°
2026-05-07 19:07 59.86210 -47.96211 32135 ft 453 kts 276°
2026-05-07 19:07 59.87143 -48.08612 32129 ft 453 kts 276°
2026-05-07 19:08 59.88057 -48.20931 32127 ft 452 kts 276°
2026-05-07 19:08 59.88971 -48.33407 32122 ft 452 kts 276°
2026-05-07 19:09 59.89867 -48.45816 32117 ft 452 kts 276°
2026-05-07 19:09 59.90744 -48.58122 32109 ft 452 kts 275°
2026-05-07 19:10 59.91617 -48.70531 32115 ft 452 kts 275°
2026-05-07 19:10 59.92477 -48.82940 32107 ft 452 kts 275°
2026-05-07 19:11 59.93326 -48.95367 32108 ft 451 kts 275°
2026-05-07 19:11 59.94158 -49.07710 32102 ft 451 kts 275°
2026-05-07 19:12 59.94982 -49.20115 32100 ft 451 kts 275°
2026-05-07 19:12 59.95795 -49.32549 32098 ft 451 kts 275°
2026-05-07 19:13 59.96596 -49.44967 32096 ft 451 kts 274°
2026-05-07 19:13 59.97384 -49.57381 32092 ft 450 kts 274°
2026-05-07 19:14 59.98159 -49.69777 32093 ft 450 kts 274°
2026-05-07 19:14 59.98919 -49.82112 32090 ft 449 kts 274°
2026-05-07 19:15 59.99672 -49.94495 32087 ft 449 kts 274°
2026-05-07 19:15 60.00207 -50.06887 32086 ft 447 kts 270°
2026-05-07 19:16 60.00507 -50.19302 32083 ft 447 kts 270°
2026-05-07 19:16 60.00793 -50.31712 32083 ft 446 kts 270°
2026-05-07 19:17 60.01075 -50.44065 32078 ft 445 kts 270°
2026-05-07 19:17 60.01348 -50.56343 32070 ft 444 kts 270°
2026-05-07 19:18 60.01613 -50.68688 32066 ft 444 kts 270°
2026-05-07 19:18 60.01866 -50.81036 32072 ft 443 kts 270°
2026-05-07 19:19 60.02107 -50.93365 32063 ft 442 kts 270°
2026-05-07 19:19 60.02334 -51.05578 32059 ft 442 kts 270°
2026-05-07 19:20 60.02551 -51.17853 32059 ft 441 kts 270°
2026-05-07 19:20 60.02756 -51.30126 32063 ft 441 kts 269°
2026-05-07 19:21 60.02950 -51.42380 32055 ft 440 kts 269°
2026-05-07 19:21 60.03132 -51.54613 32053 ft 440 kts 269°
2026-05-07 19:22 60.03303 -51.66833 32050 ft 439 kts 269°
2026-05-07 19:22 60.03462 -51.79040 32046 ft 439 kts 269°
2026-05-07 19:23 60.03609 -51.91148 32046 ft 438 kts 268°
2026-05-07 19:23 60.03745 -52.03323 32044 ft 438 kts 268°
2026-05-07 19:24 60.03870 -52.15509 32040 ft 437 kts 268°
2026-05-07 19:24 60.03984 -52.27680 32035 ft 437 kts 268°
2026-05-07 19:25 60.04087 -52.39821 32035 ft 436 kts 268°
2026-05-07 19:25 60.04178 -52.51973 32032 ft 436 kts 267°
2026-05-07 19:26 60.04258 -52.64096 32032 ft 436 kts 267°
2026-05-07 19:26 60.04327 -52.76230 32027 ft 435 kts 267°
2026-05-07 19:27 60.04385 -52.88341 32028 ft 435 kts 267°
2026-05-07 19:27 60.04432 -53.00371 32024 ft 435 kts 266°
2026-05-07 19:28 60.04467 -53.12542 32023 ft 434 kts 266°
2026-05-07 19:28 60.04492 -53.24628 32018 ft 434 kts 266°
2026-05-07 19:29 60.04506 -53.36694 32021 ft 434 kts 266°
2026-05-07 19:29 60.04508 -53.48692 32017 ft 433 kts 265°
2026-05-07 19:30 60.04500 -53.60788 32011 ft 433 kts 265°
2026-05-07 19:30 60.04480 -53.72838 32006 ft 433 kts 265°
2026-05-07 19:31 60.04450 -53.84806 32000 ft 432 kts 265°
2026-05-07 19:31 60.04409 -53.96843 32002 ft 432 kts 265°
2026-05-07 19:32 60.04357 -54.08876 32004 ft 432 kts 264°
2026-05-07 19:32 60.04294 -54.20906 31999 ft 432 kts 264°
2026-05-07 19:33 60.04220 -54.32920 31992 ft 432 kts 264°
2026-05-07 19:33 60.04151 -54.42900 31991 ft 431 kts 264°
2026-05-07 19:34 60.04057 -54.54903 31988 ft 431 kts 264°
2026-05-07 19:34 60.03934 -54.68859 31986 ft 431 kts 264°
2026-05-07 19:35 60.03838 -54.78824 31980 ft 431 kts 263°
2026-05-07 19:35 60.03711 -54.90812 31976 ft 430 kts 263°
2026-05-07 19:36 60.03574 -55.02806 31976 ft 430 kts 263°
2026-05-07 19:36 60.03427 -55.14773 31970 ft 430 kts 263°
2026-05-07 19:37 60.03268 -55.26736 31977 ft 430 kts 263°
2026-05-07 19:37 60.03100 -55.38646 31961 ft 430 kts 263°
2026-05-07 19:38 60.02920 -55.50605 31973 ft 430 kts 262°
2026-05-07 19:38 60.02729 -55.62571 31957 ft 430 kts 262°
2026-05-07 19:39 60.02527 -55.74536 31955 ft 430 kts 262°
2026-05-07 19:39 60.02315 -55.86507 31954 ft 430 kts 262°
2026-05-07 19:40 60.02093 -55.98400 31949 ft 430 kts 262°
2026-05-07 19:40 60.01858 -56.10373 31948 ft 431 kts 261°
2026-05-07 19:41 60.01613 -56.22347 31948 ft 431 kts 261°
2026-05-07 19:41 60.01357 -56.34321 31945 ft 431 kts 261°
2026-05-07 19:42 60.01090 -56.46296 31941 ft 431 kts 261°
2026-05-07 19:42 60.00814 -56.58202 31942 ft 431 kts 261°
2026-05-07 19:43 60.00526 -56.70163 31935 ft 431 kts 261°
2026-05-07 19:43 60.00226 -56.82135 31931 ft 431 kts 260°
2026-05-07 19:44 59.99916 -56.94123 31931 ft 431 kts 260°
2026-05-07 19:44 59.99594 -57.06100 31922 ft 431 kts 260°
2026-05-07 19:45 59.99265 -57.17989 31925 ft 431 kts 260°
2026-05-07 19:45 59.98922 -57.29963 31917 ft 432 kts 259°
2026-05-07 19:46 59.98568 -57.41939 31918 ft 432 kts 259°
2026-05-07 19:46 59.98203 -57.53910 31910 ft 432 kts 259°
2026-05-07 19:47 59.97827 -57.65906 31911 ft 432 kts 259°
2026-05-07 19:47 59.97441 -57.77880 31908 ft 432 kts 259°
2026-05-07 19:48 59.97047 -57.89802 31902 ft 432 kts 259°
2026-05-07 19:48 59.96634 -58.01779 31900 ft 432 kts 258°
2026-05-07 19:49 59.96053 -58.13703 31903 ft 431 kts 257°
2026-05-07 19:49 59.95400 -58.25594 31897 ft 431 kts 256°
2026-05-07 19:50 59.94748 -58.37493 31891 ft 431 kts 256°
2026-05-07 19:50 59.94101 -58.49388 31892 ft 431 kts 256°
2026-05-07 19:51 59.93448 -58.61286 31879 ft 431 kts 256°
2026-05-07 19:51 59.92785 -58.73177 31882 ft 432 kts 256°
2026-05-07 19:52 59.92111 -58.85065 31875 ft 432 kts 256°
2026-05-07 19:52 59.91425 -58.96952 31881 ft 432 kts 256°
2026-05-07 19:53 59.90734 -59.08758 31878 ft 432 kts 256°
2026-05-07 19:53 59.90026 -59.20648 31872 ft 432 kts 256°
2026-05-07 19:54 59.89308 -59.32541 31870 ft 432 kts 255°
2026-05-07 19:54 59.88578 -59.44435 31868 ft 432 kts 255°
2026-05-07 19:55 59.87838 -59.56321 31861 ft 433 kts 255°
2026-05-07 19:55 59.87086 -59.68219 31863 ft 433 kts 255°
2026-05-07 19:56 59.86323 -59.80125 31857 ft 433 kts 255°
2026-05-07 19:56 59.85548 -59.92035 31855 ft 434 kts 255°
2026-05-07 19:57 59.84762 -60.03934 31859 ft 434 kts 255°
2026-05-07 19:57 59.83971 -60.15763 31845 ft 434 kts 255°
2026-05-07 19:58 59.83163 -60.27663 31851 ft 434 kts 254°
2026-05-07 19:58 59.82344 -60.39575 31849 ft 435 kts 254°
2026-05-07 19:59 59.81514 -60.51482 31847 ft 435 kts 254°
2026-05-07 19:59 59.80672 -60.63392 31844 ft 435 kts 254°
2026-05-07 20:00 59.79825 -60.75218 31842 ft 435 kts 254°
2026-05-07 20:00 59.78962 -60.87117 31846 ft 435 kts 254°
2026-05-07 20:01 59.78086 -60.99044 31839 ft 435 kts 253°
2026-05-07 20:01 59.77201 -61.10940 31839 ft 436 kts 253°
2026-05-07 20:02 59.76311 -61.22755 31846 ft 436 kts 253°
2026-05-07 20:02 59.75404 -61.34638 31837 ft 436 kts 253°
2026-05-07 20:03 59.74488 -61.46534 31836 ft 436 kts 253°
2026-05-07 20:03 59.73550 -61.58415 31831 ft 435 kts 252°
2026-05-07 20:04 59.71981 -61.69853 31831 ft 427 kts 244°
2026-05-07 20:04 59.70090 -61.81047 31829 ft 429 kts 245°
2026-05-07 20:05 59.68226 -61.92184 31823 ft 429 kts 245°
2026-05-07 20:05 59.66344 -62.03392 31821 ft 429 kts 245°
2026-05-07 20:06 59.64452 -62.14594 31820 ft 429 kts 245°
2026-05-07 20:06 59.62546 -62.25808 31816 ft 430 kts 244°
2026-05-07 20:07 59.60633 -62.36992 31812 ft 430 kts 244°
2026-05-07 20:07 59.58709 -62.48173 31811 ft 430 kts 244°
2026-05-07 20:08 59.56774 -62.59343 31811 ft 430 kts 244°
2026-05-07 20:08 59.54828 -62.70516 31809 ft 431 kts 244°
2026-05-07 20:09 59.52871 -62.81679 31800 ft 431 kts 244°
2026-05-07 20:10 59.49930 -62.98339 31802 ft 431 kts 244°
2026-05-07 20:10 59.47946 -63.09488 31798 ft 432 kts 244°
2026-05-07 20:11 59.45955 -63.20617 31797 ft 432 kts 244°
2026-05-07 20:11 59.43948 -63.31761 31795 ft 432 kts 244°
2026-05-07 20:12 59.41930 -63.42907 31798 ft 433 kts 244°
2026-05-07 20:12 59.39902 -63.54041 31803 ft 433 kts 243°
2026-05-07 20:13 59.37862 -63.65173 31797 ft 433 kts 243°
2026-05-07 20:13 59.35811 -63.76304 31796 ft 434 kts 243°
2026-05-07 20:14 59.33767 -63.87335 31796 ft 434 kts 243°
2026-05-07 20:14 59.31696 -63.98444 31775 ft 434 kts 243°
2026-05-07 20:15 59.29613 -64.09556 31801 ft 435 kts 243°
2026-05-07 20:15 59.27519 -64.20675 31793 ft 435 kts 243°
2026-05-07 20:16 59.25411 -64.31757 31787 ft 435 kts 243°
2026-05-07 20:16 59.23278 -64.42834 31788 ft 436 kts 243°
2026-05-07 20:17 59.21138 -64.53903 31790 ft 435 kts 243°
2026-05-07 20:17 59.18994 -64.64943 31790 ft 436 kts 243°
2026-05-07 20:18 59.16834 -64.76010 31769 ft 436 kts 242°
2026-05-07 20:18 59.14678 -64.86988 31773 ft 437 kts 242°
2026-05-07 20:19 59.12496 -64.98033 31766 ft 437 kts 242°
2026-05-07 20:19 59.10304 -65.09074 31773 ft 437 kts 242°
2026-05-07 20:20 59.08101 -65.20120 31774 ft 437 kts 242°
2026-05-07 20:20 59.05898 -65.31084 31769 ft 438 kts 242°
2026-05-07 20:21 59.03669 -65.42123 31778 ft 439 kts 242°
2026-05-07 20:21 59.01432 -65.53146 31774 ft 439 kts 242°
2026-05-07 20:22 58.99563 -65.62310 31771 ft 439 kts 242°
2026-05-07 20:22 58.97306 -65.73317 31770 ft 439 kts 242°
2026-05-07 20:23 58.94663 -65.86130 31758 ft 440 kts 242°
2026-05-07 20:23 58.92766 -65.95282 31764 ft 440 kts 242°
2026-05-07 20:24 58.90476 -66.06274 31765 ft 440 kts 242°
2026-05-07 20:24 58.88173 -66.17267 31762 ft 441 kts 242°
2026-05-07 20:25 58.85858 -66.28253 31764 ft 441 kts 242°
2026-05-07 20:25 58.83532 -66.39235 31763 ft 442 kts 242°
2026-05-07 20:26 58.81192 -66.50228 31761 ft 443 kts 242°
2026-05-07 20:26 58.78853 -66.61157 31763 ft 444 kts 242°
2026-05-07 20:27 58.76488 -66.72148 31766 ft 444 kts 242°
2026-05-07 20:27 58.74111 -66.83133 31760 ft 445 kts 242°
2026-05-07 20:28 58.71719 -66.94134 31764 ft 445 kts 242°
2026-05-07 20:28 58.69319 -67.05115 31762 ft 445 kts 242°
2026-05-07 20:29 58.66920 -67.16030 31762 ft 446 kts 242°
2026-05-07 20:29 58.64493 -67.27015 31765 ft 447 kts 242°
2026-05-07 20:30 58.62055 -67.37990 31765 ft 447 kts 242°
2026-05-07 20:30 58.59603 -67.48974 31753 ft 448 kts 242°
2026-05-07 20:31 58.57141 -67.59948 31753 ft 449 kts 242°
2026-05-07 20:31 58.54656 -67.70963 31757 ft 450 kts 242°
2026-05-07 20:32 58.52163 -67.81954 31756 ft 450 kts 242°
2026-05-07 20:32 58.49672 -67.92884 31755 ft 451 kts 242°
2026-05-07 20:33 58.47152 -68.03883 31754 ft 451 kts 242°
2026-05-07 20:33 58.44621 -68.14873 31754 ft 452 kts 242°
2026-05-07 20:34 58.42079 -68.25853 31755 ft 453 kts 242°
2026-05-07 20:34 58.39524 -68.36835 31760 ft 454 kts 242°
2026-05-07 20:35 58.36966 -68.47773 31760 ft 455 kts 242°
2026-05-07 20:35 58.34378 -68.58783 31759 ft 456 kts 242°
2026-05-07 20:36 58.31778 -68.69786 31756 ft 457 kts 242°
2026-05-07 20:36 58.29160 -68.80810 31760 ft 458 kts 241°
2026-05-07 20:37 58.26527 -68.91843 31761 ft 458 kts 242°
2026-05-07 20:37 58.23887 -69.02847 31754 ft 459 kts 242°
2026-05-07 20:38 58.21226 -69.13885 31756 ft 460 kts 241°
2026-05-07 20:38 58.18552 -69.24918 31756 ft 461 kts 241°
2026-05-07 20:39 58.15867 -69.35941 31754 ft 461 kts 241°
2026-05-07 20:39 58.13169 -69.46965 31754 ft 462 kts 241°
2026-05-07 20:40 58.10454 -69.58002 31761 ft 463 kts 241°
2026-05-07 20:40 58.07739 -69.68981 31745 ft 464 kts 241°
2026-05-07 20:41 58.04998 -69.80017 31750 ft 464 kts 241°
2026-05-07 20:41 58.02237 -69.91080 31750 ft 465 kts 241°
2026-05-07 20:42 57.99635 -70.02270 31751 ft 468 kts 247°
2026-05-07 20:42 57.97806 -70.14106 31752 ft 471 kts 250°
2026-05-07 20:43 57.96029 -70.25917 31741 ft 472 kts 250°
2026-05-07 20:43 57.94213 -70.37790 31746 ft 472 kts 250°
2026-05-07 20:44 57.92372 -70.49670 31744 ft 473 kts 250°
2026-05-07 20:44 57.90515 -70.61545 31741 ft 473 kts 250°
2026-05-07 20:45 57.88655 -70.73362 31744 ft 474 kts 250°
2026-05-07 20:45 57.86775 -70.85231 31741 ft 474 kts 250°
2026-05-07 20:46 57.84873 -70.97148 31742 ft 475 kts 250°
2026-05-07 20:46 57.82969 -71.09005 31742 ft 475 kts 250°
2026-05-07 20:47 57.81048 -71.20881 31745 ft 475 kts 250°
2026-05-07 20:47 57.79118 -71.32735 31746 ft 476 kts 250°
2026-05-07 20:48 57.77187 -71.44513 31742 ft 476 kts 250°
2026-05-07 20:48 57.75234 -71.56350 31740 ft 476 kts 250°
2026-05-07 20:49 57.73265 -71.68198 31742 ft 476 kts 250°
2026-05-07 20:49 57.71286 -71.80026 31743 ft 476 kts 250°
2026-05-07 20:50 57.69296 -71.91846 31746 ft 476 kts 250°
2026-05-07 20:50 57.67294 -72.03651 31744 ft 477 kts 250°
2026-05-07 20:51 57.65278 -72.15472 31744 ft 477 kts 250°
2026-05-07 20:51 57.63255 -72.27250 31744 ft 476 kts 250°
2026-05-07 20:52 57.61233 -72.38947 31745 ft 476 kts 250°
2026-05-07 20:52 57.59185 -72.50712 31744 ft 477 kts 250°
2026-05-07 20:53 57.57129 -72.62458 31742 ft 476 kts 250°
2026-05-07 20:53 57.55062 -72.74187 31747 ft 476 kts 250°
2026-05-07 20:54 57.52984 -72.85902 31746 ft 476 kts 250°
2026-05-07 20:54 57.50894 -72.97609 31745 ft 476 kts 250°
2026-05-07 20:55 57.48792 -73.09309 31749 ft 476 kts 250°
2026-05-07 20:55 57.46695 -73.20912 31747 ft 476 kts 250°
2026-05-07 20:56 57.44575 -73.32565 31746 ft 476 kts 249°
2026-05-07 20:56 57.42447 -73.44196 31744 ft 476 kts 249°
2026-05-07 20:57 57.40300 -73.55851 31749 ft 476 kts 249°
2026-05-07 20:57 57.38163 -73.67383 31750 ft 476 kts 249°
2026-05-07 20:58 57.35991 -73.79037 31752 ft 475 kts 249°
2026-05-07 20:58 57.33830 -73.90560 31749 ft 475 kts 249°
2026-05-07 20:59 57.31650 -74.02107 31748 ft 475 kts 249°
2026-05-07 20:59 57.29461 -74.13641 31747 ft 475 kts 249°
2026-05-07 21:00 57.27278 -74.25072 31748 ft 475 kts 249°
2026-05-07 21:00 57.25067 -74.36577 31754 ft 474 kts 249°
2026-05-07 21:01 57.22847 -74.48065 31747 ft 474 kts 249°
2026-05-07 21:01 57.20623 -74.59503 31748 ft 474 kts 249°
2026-05-07 21:02 57.18398 -74.70880 31756 ft 473 kts 249°
2026-05-07 21:02 57.16155 -74.82284 31755 ft 473 kts 249°
2026-05-07 21:03 57.13894 -74.93713 31757 ft 473 kts 249°
2026-05-07 21:03 57.11646 -75.05007 31759 ft 473 kts 249°
2026-05-07 21:04 57.09367 -75.16398 31761 ft 473 kts 249°
2026-05-07 21:04 57.07082 -75.27751 31765 ft 473 kts 249°
2026-05-07 21:05 57.04786 -75.39092 31752 ft 473 kts 249°
2026-05-07 21:05 57.02478 -75.50427 31754 ft 473 kts 249°
2026-05-07 21:06 57.00163 -75.61731 31752 ft 473 kts 249°
2026-05-07 21:06 56.97838 -75.73026 31748 ft 473 kts 249°
2026-05-07 21:07 56.95519 -75.84223 31752 ft 473 kts 249°
2026-05-07 21:07 56.93176 -75.95475 31750 ft 472 kts 249°
2026-05-07 21:08 56.90826 -76.06699 31757 ft 472 kts 248°
2026-05-07 21:08 56.88465 -76.17914 31750 ft 472 kts 248°
2026-05-07 21:09 56.86096 -76.29106 31751 ft 471 kts 248°
2026-05-07 21:09 56.83717 -76.40282 31755 ft 472 kts 248°
2026-05-07 21:10 56.81729 -76.49574 31748 ft 473 kts 248°
2026-05-07 21:10 56.78932 -76.62575 31746 ft 473 kts 248°
2026-05-07 21:11 56.76518 -76.73733 31749 ft 472 kts 248°
2026-05-07 21:11 56.73275 -76.88628 31749 ft 472 kts 248°
2026-05-07 21:12 56.70852 -76.99687 31751 ft 472 kts 248°
2026-05-07 21:12 56.68409 -77.10780 31749 ft 472 kts 248°
2026-05-07 21:13 56.65956 -77.21857 31748 ft 472 kts 248°
2026-05-07 21:13 56.63492 -77.32925 31753 ft 473 kts 248°
2026-05-07 21:14 56.61016 -77.43991 31746 ft 472 kts 247°
2026-05-07 21:14 56.58536 -77.55014 31747 ft 471 kts 247°
2026-05-07 21:15 56.56048 -77.66013 31748 ft 471 kts 247°
2026-05-07 21:15 56.53548 -77.77010 31747 ft 472 kts 247°
2026-05-07 21:16 56.51033 -77.88013 31745 ft 472 kts 247°
2026-05-07 21:16 56.48528 -77.98919 31746 ft 472 kts 247°
2026-05-07 21:17 56.45992 -78.09901 31747 ft 473 kts 247°
2026-05-07 21:17 56.43446 -78.20874 31742 ft 473 kts 246°
2026-05-07 21:18 56.40883 -78.31862 31752 ft 473 kts 246°
2026-05-07 21:18 56.38317 -78.42803 31747 ft 473 kts 246°
2026-05-07 21:19 56.35754 -78.53680 31741 ft 473 kts 246°
2026-05-07 21:19 56.33171 -78.64585 31747 ft 473 kts 246°
2026-05-07 21:20 56.30574 -78.75497 31752 ft 474 kts 246°
2026-05-07 21:20 56.27961 -78.86416 31732 ft 474 kts 246°
2026-05-07 21:21 56.25346 -78.97290 31746 ft 473 kts 246°
2026-05-07 21:21 56.22721 -79.08150 31744 ft 474 kts 246°
2026-05-07 21:22 56.20084 -79.19007 31738 ft 473 kts 246°
2026-05-07 21:22 56.17438 -79.29847 31749 ft 474 kts 245°
2026-05-07 21:23 56.14802 -79.40595 31744 ft 474 kts 245°
2026-05-07 21:23 56.12136 -79.51410 31740 ft 474 kts 245°
2026-05-07 21:24 56.09461 -79.62208 31744 ft 474 kts 245°
2026-05-07 21:24 56.06770 -79.73018 31749 ft 474 kts 245°
2026-05-07 21:25 56.04093 -79.83726 31748 ft 474 kts 245°
2026-05-07 21:25 56.01391 -79.94483 31756 ft 474 kts 245°
2026-05-07 21:26 55.98697 -80.05257 31751 ft 475 kts 245°
2026-05-07 21:26 55.96090 -80.16088 31749 ft 474 kts 246°
2026-05-07 21:27 55.93494 -80.26914 31748 ft 474 kts 246°
2026-05-07 21:27 55.90901 -80.37634 31748 ft 474 kts 245°
2026-05-07 21:28 55.88259 -80.48457 31749 ft 474 kts 245°
2026-05-07 21:28 55.85621 -80.59204 31745 ft 474 kts 245°
2026-05-07 21:29 55.82986 -80.69881 31747 ft 475 kts 245°
2026-05-07 21:29 55.80320 -80.80632 31746 ft 475 kts 245°
2026-05-07 21:30 55.77642 -80.91383 31745 ft 475 kts 245°
2026-05-07 21:30 55.74955 -81.02116 31753 ft 475 kts 245°
2026-05-07 21:31 55.72259 -81.12835 31744 ft 475 kts 245°
2026-05-07 21:31 55.69569 -81.23481 31748 ft 476 kts 245°
2026-05-07 21:32 55.66852 -81.34177 31746 ft 476 kts 245°
2026-05-07 21:32 55.64124 -81.44868 31745 ft 476 kts 245°
2026-05-07 21:33 55.61380 -81.55568 31747 ft 477 kts 244°
2026-05-07 21:33 55.58635 -81.66224 31745 ft 477 kts 244°
2026-05-07 21:34 55.55873 -81.76892 31742 ft 477 kts 244°
2026-05-07 21:34 55.53103 -81.87540 31739 ft 477 kts 244°
2026-05-07 21:35 55.50342 -81.98107 31741 ft 477 kts 244°
2026-05-07 21:35 55.47556 -82.08717 31742 ft 477 kts 244°
2026-05-07 21:36 55.44760 -82.19314 31736 ft 477 kts 244°
2026-05-07 21:36 55.41955 -82.29899 31727 ft 477 kts 244°
2026-05-07 21:37 55.39138 -82.40475 31727 ft 477 kts 244°
2026-05-07 21:37 55.36312 -82.51040 31734 ft 477 kts 244°
2026-05-07 21:38 55.33474 -82.61600 31722 ft 477 kts 244°
2026-05-07 21:38 55.30630 -82.72133 31731 ft 477 kts 244°
2026-05-07 21:39 55.27790 -82.82599 31731 ft 477 kts 244°
2026-05-07 21:39 55.24928 -82.93102 31722 ft 478 kts 243°
2026-05-07 21:40 55.22053 -83.03605 31728 ft 477 kts 243°
2026-05-07 21:40 55.19172 -83.14081 31721 ft 478 kts 243°
2026-05-07 21:41 55.16278 -83.24555 31724 ft 478 kts 243°
2026-05-07 21:41 55.13390 -83.34961 31712 ft 478 kts 243°
2026-05-07 21:42 55.10476 -83.45413 31730 ft 478 kts 243°
2026-05-07 21:42 55.07550 -83.55861 31732 ft 478 kts 243°
2026-05-07 21:43 55.04621 -83.66272 31714 ft 478 kts 243°
2026-05-07 21:43 55.01681 -83.76676 31732 ft 478 kts 243°
2026-05-07 21:44 54.98740 -83.87037 31738 ft 477 kts 243°
2026-05-07 21:44 54.95803 -83.97338 31730 ft 477 kts 243°
2026-05-07 21:45 54.92841 -84.07677 31719 ft 477 kts 243°
2026-05-07 21:45 54.89872 -84.18000 31721 ft 477 kts 243°
2026-05-07 21:46 54.86901 -84.28285 31724 ft 476 kts 243°
2026-05-07 21:46 54.83916 -84.38569 31746 ft 476 kts 243°
2026-05-07 21:47 54.80928 -84.48822 31743 ft 476 kts 243°
2026-05-07 21:47 54.77952 -84.58988 31748 ft 476 kts 243°
2026-05-07 21:48 54.74947 -84.69206 31746 ft 476 kts 243°
2026-05-07 21:48 54.71925 -84.79440 31731 ft 476 kts 243°
2026-05-07 21:49 54.68902 -84.89634 31738 ft 476 kts 243°
2026-05-07 21:49 54.65886 -84.99758 31749 ft 476 kts 243°
2026-05-07 21:50 54.64366 -85.04844 31870 ft 477 kts 243°
2026-05-07 21:50 54.62840 -85.09938 32170 ft 477 kts 243°
2026-05-07 21:50 54.61315 -85.15020 32463 ft 476 kts 243°
2026-05-07 21:50 54.59793 -85.20080 32821 ft 475 kts 243°
2026-05-07 21:51 54.58270 -85.25135 33072 ft 476 kts 243°
2026-05-07 21:51 54.56742 -85.30197 33270 ft 477 kts 243°
2026-05-07 21:51 54.55209 -85.35262 33586 ft 476 kts 243°
2026-05-07 21:51 54.53668 -85.40340 33660 ft 479 kts 243°
2026-05-07 21:52 54.50566 -85.50536 33735 ft 481 kts 243°
2026-05-07 21:52 54.47476 -85.60648 33741 ft 480 kts 243°
2026-05-07 21:53 54.44367 -85.70777 33748 ft 479 kts 243°
2026-05-07 21:53 54.41242 -85.80914 33750 ft 480 kts 243°
2026-05-07 21:54 54.38108 -85.91038 33745 ft 480 kts 243°
2026-05-07 21:54 54.34966 -86.01147 33748 ft 480 kts 243°
2026-05-07 21:55 54.31818 -86.11234 33749 ft 480 kts 243°
2026-05-07 21:55 54.28659 -86.21313 33748 ft 480 kts 243°
2026-05-07 21:56 54.25487 -86.31389 33752 ft 481 kts 243°
2026-05-07 21:56 54.22325 -86.41391 33754 ft 481 kts 243°
2026-05-07 21:57 54.19136 -86.51441 33749 ft 481 kts 243°
2026-05-07 21:57 54.15935 -86.61487 33751 ft 482 kts 243°
2026-05-07 21:58 54.13263 -86.69836 33753 ft 482 kts 243°
2026-05-07 21:58 54.10032 -86.79898 33756 ft 483 kts 243°
2026-05-07 21:59 54.06793 -86.89939 33756 ft 483 kts 243°
2026-05-07 21:59 54.03570 -86.99893 33752 ft 483 kts 243°
2026-05-07 22:00 54.00318 -87.09895 33754 ft 483 kts 242°
2026-05-07 22:00 53.97056 -87.19887 33755 ft 484 kts 242°
2026-05-07 22:01 53.93778 -87.29884 33756 ft 484 kts 242°
2026-05-07 22:01 53.90495 -87.39858 33759 ft 484 kts 242°
2026-05-07 22:02 53.87204 -87.49815 33761 ft 484 kts 242°
2026-05-07 22:02 53.83917 -87.59718 33762 ft 484 kts 242°
2026-05-07 22:03 53.80607 -87.69653 33764 ft 485 kts 242°
2026-05-07 22:03 53.77281 -87.79593 33765 ft 485 kts 242°
2026-05-07 22:04 53.73952 -87.89500 33773 ft 485 kts 242°
2026-05-07 22:04 53.70618 -87.99388 33773 ft 485 kts 242°
2026-05-07 22:05 53.67289 -88.09217 33767 ft 485 kts 242°
2026-05-07 22:05 53.63933 -88.19087 33767 ft 485 kts 242°
2026-05-07 22:06 53.60570 -88.28941 33771 ft 485 kts 242°
2026-05-07 22:06 53.57196 -88.38784 33775 ft 485 kts 242°
2026-05-07 22:07 53.53807 -88.48633 33781 ft 485 kts 242°
2026-05-07 22:07 53.50439 -88.58382 33778 ft 485 kts 242°
2026-05-07 22:08 53.47039 -88.68184 33785 ft 485 kts 242°
2026-05-07 22:08 53.43631 -88.77970 33785 ft 485 kts 242°
2026-05-07 22:09 53.40218 -88.87734 33788 ft 486 kts 242°
2026-05-07 22:09 53.36786 -88.97513 33789 ft 486 kts 242°
2026-05-07 22:10 53.33354 -89.07252 33801 ft 486 kts 242°
2026-05-07 22:10 53.29911 -89.16986 33798 ft 486 kts 242°
2026-05-07 22:11 53.26478 -89.26654 33796 ft 487 kts 242°
2026-05-07 22:11 53.23009 -89.36385 33800 ft 487 kts 242°
2026-05-07 22:12 53.19535 -89.46093 33801 ft 487 kts 242°
2026-05-07 22:12 53.16073 -89.55727 33806 ft 487 kts 242°
2026-05-07 22:13 53.12583 -89.65405 33809 ft 487 kts 242°
2026-05-07 22:13 53.09081 -89.75080 33806 ft 487 kts 242°
2026-05-07 22:14 53.05579 -89.84717 33813 ft 487 kts 242°
2026-05-07 22:14 53.02084 -89.94304 33817 ft 487 kts 242°
2026-05-07 22:15 52.98846 -90.04169 33816 ft 484 kts 250°
2026-05-07 22:15 52.96224 -90.14438 33816 ft 484 kts 250°
2026-05-07 22:16 52.93600 -90.24726 33819 ft 484 kts 250°
2026-05-07 22:16 52.90954 -90.34966 33824 ft 484 kts 249°
2026-05-07 22:17 52.88301 -90.45133 33825 ft 484 kts 249°
2026-05-07 22:17 52.85618 -90.55356 33827 ft 484 kts 249°
2026-05-07 22:18 52.81579 -90.70667 33827 ft 484 kts 249°
2026-05-07 22:19 52.78876 -90.80858 33832 ft 484 kts 249°
2026-05-07 22:19 52.76166 -90.91033 33829 ft 484 kts 249°
2026-05-07 22:20 52.73449 -91.01188 33835 ft 484 kts 249°
2026-05-07 22:20 52.70718 -91.11348 33830 ft 484 kts 249°
2026-05-07 22:21 52.68001 -91.21413 33841 ft 484 kts 249°
2026-05-07 22:21 52.65256 -91.31533 33840 ft 484 kts 249°
2026-05-07 22:22 52.62499 -91.41657 33836 ft 484 kts 249°
2026-05-07 22:22 52.59738 -91.51751 33830 ft 484 kts 249°
2026-05-07 22:23 52.56965 -91.61845 33846 ft 484 kts 249°
2026-05-07 22:23 52.54195 -91.71882 33848 ft 484 kts 249°
2026-05-07 22:24 52.51406 -91.81948 33837 ft 484 kts 249°
2026-05-07 22:24 52.48611 -91.91990 33843 ft 484 kts 249°
2026-05-07 22:25 52.45804 -92.02032 33849 ft 484 kts 249°
2026-05-07 22:25 52.42989 -92.12057 33845 ft 484 kts 249°
2026-05-07 22:26 52.40184 -92.22009 33843 ft 484 kts 249°
2026-05-07 22:26 52.37354 -92.32002 33840 ft 484 kts 249°
2026-05-07 22:27 52.34516 -92.41983 33843 ft 484 kts 249°
2026-05-07 22:27 52.31664 -92.51973 33848 ft 484 kts 248°
2026-05-07 22:28 52.28802 -92.61953 33842 ft 484 kts 248°
2026-05-07 22:28 52.25934 -92.71912 33839 ft 484 kts 248°
2026-05-07 22:29 52.23077 -92.81792 33837 ft 484 kts 248°
2026-05-07 22:29 52.20192 -92.91725 33841 ft 484 kts 248°
2026-05-07 22:30 52.17298 -93.01650 33840 ft 485 kts 248°
2026-05-07 22:30 52.14395 -93.11563 33836 ft 485 kts 248°
2026-05-07 22:31 52.11482 -93.21467 33836 ft 485 kts 248°
2026-05-07 22:31 52.08565 -93.31349 33840 ft 485 kts 248°
2026-05-07 22:32 52.05650 -93.41178 33841 ft 485 kts 248°
2026-05-07 22:32 52.02711 -93.51051 33850 ft 485 kts 248°
2026-05-07 22:33 51.99763 -93.60912 33837 ft 485 kts 248°
2026-05-07 22:33 51.96825 -93.70700 33849 ft 485 kts 248°
2026-05-07 22:34 51.93863 -93.80526 33854 ft 485 kts 248°
2026-05-07 22:34 51.90894 -93.90339 33855 ft 485 kts 247°
2026-05-07 22:35 51.87913 -94.00147 33854 ft 485 kts 247°
2026-05-07 22:35 51.84929 -94.09930 33858 ft 485 kts 247°
2026-05-07 22:36 51.81934 -94.19707 33857 ft 485 kts 247°
2026-05-07 22:36 51.78951 -94.29405 33863 ft 485 kts 247°
2026-05-07 22:37 51.75941 -94.39153 33861 ft 485 kts 247°
2026-05-07 22:37 51.72920 -94.48899 33864 ft 485 kts 246°
2026-05-07 22:38 51.69911 -94.58565 33863 ft 485 kts 246°
2026-05-07 22:38 51.66880 -94.68267 33861 ft 485 kts 246°
2026-05-07 22:39 51.63843 -94.77950 33868 ft 484 kts 246°
2026-05-07 22:39 51.60798 -94.87619 33806 ft 482 kts 248°
2026-05-07 22:40 51.57347 -94.96905 33861 ft 488 kts 238°
2026-05-07 22:40 51.53194 -95.05550 33869 ft 489 kts 237°
2026-05-07 22:41 51.49016 -95.14168 33868 ft 489 kts 237°
2026-05-07 22:41 51.44858 -95.22789 33871 ft 488 kts 237°
2026-05-07 22:42 51.40709 -95.31407 33877 ft 488 kts 237°
2026-05-07 22:42 51.36565 -95.39999 33873 ft 488 kts 237°
2026-05-07 22:43 51.32434 -95.48532 33880 ft 487 kts 237°
2026-05-07 22:43 51.28272 -95.57097 33878 ft 487 kts 237°
2026-05-07 22:44 51.24108 -95.65640 33881 ft 487 kts 237°
2026-05-07 22:44 51.19929 -95.74182 33882 ft 487 kts 237°
2026-05-07 22:45 51.15750 -95.82698 33884 ft 487 kts 237°
2026-05-07 22:45 51.11596 -95.91135 33889 ft 487 kts 237°
2026-05-07 22:46 51.07404 -95.99622 33898 ft 487 kts 237°
2026-05-07 22:46 51.03920 -96.06652 33901 ft 487 kts 237°
2026-05-07 22:47 50.99713 -96.15119 33892 ft 487 kts 237°
2026-05-07 22:47 50.95509 -96.23552 33891 ft 487 kts 237°
2026-05-07 22:48 50.91291 -96.31984 33895 ft 487 kts 238°
2026-05-07 22:48 50.87076 -96.40384 33899 ft 487 kts 238°
2026-05-07 22:49 50.82870 -96.48738 33896 ft 487 kts 238°
2026-05-07 22:49 50.78645 -96.57104 33897 ft 487 kts 238°
2026-05-07 22:50 50.74404 -96.65472 33894 ft 487 kts 238°
2026-05-07 22:50 50.70167 -96.73807 33893 ft 487 kts 238°
2026-05-07 22:51 50.65928 -96.82121 33887 ft 486 kts 238°
2026-05-07 22:51 50.61678 -96.90427 33883 ft 486 kts 238°
2026-05-07 22:52 50.57432 -96.98701 33882 ft 486 kts 238°
2026-05-07 22:52 50.53201 -97.06919 33885 ft 485 kts 238°
2026-05-07 22:53 50.48951 -97.15147 33876 ft 485 kts 238°
2026-05-07 22:53 50.44699 -97.23354 33875 ft 484 kts 238°
2026-05-07 22:54 50.40440 -97.31549 33873 ft 484 kts 238°
2026-05-07 22:54 50.36177 -97.39725 33878 ft 483 kts 238°
2026-05-07 22:55 50.31916 -97.47871 33892 ft 483 kts 238°
2026-05-07 22:55 50.27682 -97.55942 33882 ft 482 kts 237°
2026-05-07 22:56 50.23422 -97.64037 33881 ft 482 kts 237°
2026-05-07 22:56 50.19161 -97.72108 33891 ft 481 kts 237°
2026-05-07 22:57 50.14898 -97.80159 33887 ft 481 kts 237°
2026-05-07 22:57 50.10636 -97.88183 33885 ft 480 kts 237°
2026-05-07 22:58 50.06373 -97.96183 33873 ft 480 kts 237°
2026-05-07 22:58 50.02137 -98.04111 33862 ft 479 kts 237°
2026-05-07 22:59 49.97874 -98.12065 33848 ft 479 kts 237°
2026-05-07 22:59 49.93612 -98.19997 33839 ft 478 kts 237°
2026-05-07 23:00 49.89342 -98.27925 33860 ft 477 kts 237°
2026-05-07 23:00 49.85186 -98.35927 33849 ft 475 kts 238°
2026-05-07 23:01 49.81083 -98.43961 33857 ft 474 kts 238°
2026-05-07 23:01 49.77003 -98.51905 33858 ft 473 kts 238°
2026-05-07 23:02 49.72889 -98.59857 33872 ft 473 kts 238°
2026-05-07 23:02 49.68777 -98.67765 33879 ft 472 kts 238°
2026-05-07 23:03 49.64651 -98.75675 33888 ft 472 kts 238°
2026-05-07 23:03 49.60527 -98.83560 33880 ft 471 kts 237°
2026-05-07 23:04 49.56408 -98.91412 33887 ft 471 kts 237°
2026-05-07 23:04 49.52314 -98.99193 33887 ft 470 kts 237°
2026-05-07 23:05 49.48191 -99.07006 33886 ft 470 kts 237°
2026-05-07 23:05 49.44063 -99.14806 33891 ft 469 kts 237°
2026-05-07 23:06 49.39940 -99.22575 33898 ft 469 kts 237°
2026-05-07 23:06 49.35810 -99.30333 33898 ft 469 kts 237°
2026-05-07 23:07 49.31672 -99.38083 33903 ft 469 kts 237°
2026-05-07 23:07 49.27559 -99.45763 33897 ft 469 kts 237°
2026-05-07 23:08 49.23420 -99.53471 33895 ft 468 kts 237°
2026-05-07 23:08 49.19276 -99.61164 33900 ft 468 kts 237°
2026-05-07 23:09 49.15131 -99.68837 33895 ft 468 kts 236°
2026-05-07 23:09 49.10984 -99.76493 33895 ft 468 kts 236°
2026-05-07 23:10 49.06827 -99.84143 33891 ft 467 kts 236°
2026-05-07 23:10 49.02699 -99.91720 33898 ft 467 kts 236°
2026-05-07 23:11 48.98538 -99.99335 33899 ft 467 kts 236°
2026-05-07 23:11 48.94382 -100.06918 33909 ft 467 kts 236°
2026-05-07 23:12 48.90215 -100.14501 33897 ft 466 kts 236°
2026-05-07 23:12 48.86074 -100.22014 33893 ft 466 kts 236°
2026-05-07 23:13 48.81904 -100.29558 33898 ft 465 kts 235°
2026-05-07 23:13 48.77736 -100.37078 33891 ft 465 kts 235°
2026-05-07 23:14 48.73566 -100.44581 33894 ft 465 kts 235°
2026-05-07 23:14 48.69406 -100.52045 33889 ft 465 kts 235°
2026-05-07 23:15 48.65221 -100.59531 33893 ft 465 kts 235°
2026-05-07 23:15 48.61035 -100.66998 33888 ft 465 kts 235°
2026-05-07 23:16 48.56843 -100.74457 34063 ft 473 kts 236°
2026-05-07 23:16 48.52541 -100.82108 33951 ft 487 kts 236°
2026-05-07 23:17 48.48109 -100.89943 33889 ft 492 kts 236°
2026-05-07 23:17 48.43652 -100.97789 33847 ft 492 kts 236°
2026-05-07 23:18 48.39208 -101.05598 33858 ft 491 kts 236°
2026-05-07 23:18 48.34753 -101.13411 33840 ft 491 kts 236°
2026-05-07 23:19 48.30331 -101.21148 33850 ft 490 kts 236°
2026-05-07 23:19 48.25818 -101.28843 33843 ft 493 kts 232°
2026-05-07 23:20 48.20626 -101.35711 33852 ft 499 kts 227°
2026-05-07 23:20 48.15298 -101.42387 33843 ft 499 kts 227°
2026-05-07 23:21 48.09984 -101.49068 33860 ft 498 kts 227°
2026-05-07 23:21 48.04715 -101.55724 33858 ft 498 kts 227°
2026-05-07 23:22 47.99419 -101.62411 33858 ft 498 kts 227°
2026-05-07 23:22 47.94126 -101.69078 33861 ft 498 kts 227°
2026-05-07 23:23 47.88835 -101.75720 33867 ft 497 kts 227°
2026-05-07 23:23 47.83524 -101.82369 33876 ft 497 kts 227°
2026-05-07 23:24 47.78219 -101.88990 33876 ft 497 kts 227°
2026-05-07 23:24 47.72941 -101.95560 33872 ft 497 kts 227°
2026-05-07 23:25 47.67622 -102.02162 33873 ft 497 kts 227°
2026-05-07 23:25 47.62309 -102.08740 33878 ft 497 kts 227°
2026-05-07 23:26 47.56992 -102.15303 33868 ft 497 kts 227°
2026-05-07 23:26 47.51716 -102.21800 33865 ft 497 kts 227°
2026-05-07 23:27 47.43731 -102.31598 33861 ft 497 kts 227°
2026-05-07 23:27 47.38409 -102.38105 33862 ft 496 kts 227°
2026-05-07 23:28 47.33080 -102.44604 33859 ft 497 kts 227°
2026-05-07 23:28 47.27750 -102.51088 33718 ft 496 kts 223°
2026-05-07 23:29 47.25125 -102.54269 33789 ft 481 kts 224°
2026-05-07 23:29 47.22588 -102.57337 33824 ft 476 kts 224°
2026-05-07 23:29 47.17502 -102.63490 33856 ft 472 kts 224°
2026-05-07 23:30 47.12428 -102.69622 33860 ft 472 kts 224°
2026-05-07 23:30 47.07339 -102.75752 33860 ft 473 kts 224°
2026-05-07 23:31 47.02276 -102.81833 33850 ft 473 kts 224°
2026-05-07 23:31 46.97173 -102.87944 33848 ft 474 kts 224°
2026-05-07 23:32 46.92059 -102.94053 33849 ft 474 kts 224°
2026-05-07 23:32 46.86938 -103.00154 33847 ft 475 kts 224°
2026-05-07 23:33 46.81810 -103.06250 33850 ft 475 kts 224°
2026-05-07 23:33 46.76679 -103.12333 33851 ft 476 kts 224°
2026-05-07 23:34 46.71569 -103.18374 33862 ft 476 kts 225°
2026-05-07 23:34 46.66413 -103.24457 33856 ft 477 kts 225°
2026-05-07 23:35 46.61254 -103.30527 33869 ft 477 kts 225°
2026-05-07 23:35 46.56961 -103.35566 33870 ft 478 kts 225°
2026-05-07 23:36 46.51778 -103.41635 33871 ft 478 kts 225°
2026-05-07 23:36 46.46580 -103.47708 33870 ft 479 kts 225°
2026-05-07 23:37 46.41383 -103.53764 33865 ft 480 kts 225°
2026-05-07 23:37 46.36174 -103.59818 33864 ft 480 kts 225°
2026-05-07 23:38 46.30957 -103.65866 33875 ft 480 kts 225°
2026-05-07 23:38 46.25765 -103.71870 33869 ft 481 kts 225°
2026-05-07 23:39 46.20537 -103.77902 33881 ft 481 kts 225°
2026-05-07 23:39 46.15299 -103.83930 33874 ft 481 kts 225°
2026-05-07 23:40 46.10054 -103.89949 33884 ft 481 kts 225°
2026-05-07 23:40 46.04804 -103.95958 33885 ft 481 kts 225°
2026-05-07 23:41 45.99559 -104.01949 33877 ft 481 kts 225°
2026-05-07 23:41 45.94347 -104.07886 33880 ft 481 kts 225°
2026-05-07 23:42 45.89097 -104.13853 33885 ft 481 kts 225°
2026-05-07 23:42 45.83863 -104.19787 33884 ft 481 kts 225°
2026-05-07 23:43 45.78612 -104.25725 33889 ft 480 kts 225°
2026-05-07 23:43 45.73365 -104.31644 33884 ft 480 kts 225°
2026-05-07 23:44 45.68119 -104.37547 33891 ft 479 kts 225°
2026-05-07 23:44 45.62875 -104.43434 33893 ft 479 kts 225°
2026-05-07 23:45 45.57631 -104.49307 33896 ft 479 kts 225°
2026-05-07 23:45 45.52382 -104.55172 33894 ft 479 kts 225°
2026-05-07 23:46 45.47137 -104.61020 33894 ft 478 kts 225°
2026-05-07 23:46 45.42041 -104.66969 33895 ft 474 kts 229°
2026-05-07 23:47 45.37122 -104.73302 33896 ft 473 kts 229°
2026-05-07 23:47 45.32274 -104.79553 33897 ft 473 kts 229°
2026-05-07 23:48 45.27386 -104.85820 33902 ft 473 kts 229°
2026-05-07 23:48 45.22490 -104.92067 33911 ft 473 kts 229°
2026-05-07 23:49 45.17586 -104.98307 33914 ft 473 kts 229°
2026-05-07 23:49 45.12680 -105.04533 33921 ft 473 kts 229°
2026-05-07 23:50 45.07802 -105.10709 33919 ft 473 kts 229°
2026-05-07 23:50 45.02890 -105.16915 33919 ft 473 kts 229°
2026-05-07 23:51 44.97972 -105.23113 33923 ft 474 kts 229°
2026-05-07 23:51 44.93042 -105.29311 33930 ft 474 kts 229°
2026-05-07 23:52 44.88113 -105.35494 33929 ft 474 kts 229°
2026-05-07 23:52 44.83210 -105.41628 33942 ft 474 kts 229°
2026-05-07 23:53 44.78277 -105.47786 33949 ft 474 kts 228°
2026-05-07 23:53 44.73334 -105.53942 33952 ft 474 kts 228°
2026-05-07 23:54 44.68399 -105.60072 33947 ft 473 kts 228°
2026-05-07 23:54 44.63453 -105.66203 33952 ft 473 kts 228°
2026-05-07 23:55 44.58509 -105.72317 33958 ft 473 kts 228°
2026-05-07 23:55 44.53590 -105.78385 33982 ft 473 kts 228°
2026-05-07 23:56 44.48629 -105.84491 33961 ft 474 kts 228°
2026-05-07 23:56 44.43668 -105.90582 33941 ft 474 kts 228°
2026-05-07 23:57 44.38703 -105.96664 33949 ft 474 kts 228°
2026-05-07 23:57 44.33733 -106.02739 33928 ft 475 kts 228°
2026-05-07 23:58 44.28791 -106.08764 33914 ft 475 kts 228°
2026-05-07 23:58 44.23799 -106.14837 33905 ft 476 kts 228°
2026-05-07 23:59 44.18805 -106.20898 33898 ft 476 kts 228°
2026-05-07 23:59 44.13809 -106.26946 33895 ft 476 kts 227°
2026-05-08 00:00 44.08811 -106.32985 33889 ft 476 kts 227°
2026-05-08 00:00 44.03831 -106.38990 33882 ft 476 kts 227°
2026-05-08 00:01 43.98833 -106.44983 33879 ft 477 kts 227°
2026-05-08 00:01 43.93671 -106.50836 33887 ft 478 kts 225°
2026-05-08 00:02 43.88470 -106.56594 33899 ft 478 kts 225°
2026-05-08 00:02 43.83264 -106.62378 33887 ft 478 kts 225°
2026-05-08 00:03 43.78084 -106.68153 33890 ft 479 kts 225°
2026-05-08 00:03 43.72923 -106.73908 33890 ft 479 kts 225°
2026-05-08 00:04 43.67714 -106.79704 33891 ft 480 kts 225°
2026-05-08 00:04 43.62503 -106.85485 33896 ft 480 kts 225°
2026-05-08 00:05 43.57278 -106.91268 33893 ft 481 kts 225°
2026-05-08 00:05 43.52048 -106.97044 33892 ft 482 kts 225°
2026-05-08 00:06 43.46837 -107.02784 33912 ft 483 kts 225°
2026-05-08 00:06 43.41579 -107.08565 33903 ft 483 kts 225°
2026-05-08 00:07 43.36317 -107.14336 33906 ft 483 kts 225°
2026-05-08 00:07 43.31055 -107.20094 33906 ft 484 kts 225°
2026-05-08 00:08 43.25783 -107.25850 33907 ft 484 kts 225°
2026-05-08 00:08 43.20542 -107.31559 33908 ft 484 kts 225°
2026-05-08 00:09 43.15256 -107.37304 33908 ft 485 kts 225°
2026-05-08 00:09 43.09947 -107.43060 33907 ft 486 kts 225°
2026-05-08 00:10 43.04680 -107.48759 33908 ft 486 kts 225°
2026-05-08 00:10 42.99366 -107.54495 33912 ft 487 kts 225°
2026-05-08 00:11 42.94037 -107.60234 33905 ft 487 kts 225°
2026-05-08 00:11 42.88711 -107.65957 33901 ft 487 kts 225°
2026-05-08 00:12 42.83376 -107.71677 33905 ft 488 kts 225°
2026-05-08 00:12 42.78032 -107.77392 33902 ft 488 kts 225°
2026-05-08 00:13 42.72726 -107.83054 33890 ft 488 kts 225°
2026-05-08 00:13 42.67389 -107.88738 33884 ft 487 kts 225°
2026-05-08 00:14 42.62051 -107.94412 33886 ft 487 kts 225°
2026-05-08 00:14 42.56702 -108.00082 33876 ft 487 kts 225°
2026-05-08 00:15 42.51350 -108.05742 33873 ft 487 kts 225°
2026-05-08 00:15 42.46003 -108.11386 33874 ft 488 kts 225°
2026-05-08 00:16 42.40672 -108.17001 33860 ft 488 kts 225°
2026-05-08 00:16 42.35299 -108.22647 33864 ft 489 kts 225°
2026-05-08 00:17 42.29919 -108.28288 33862 ft 490 kts 225°
2026-05-08 00:17 42.24520 -108.33934 33869 ft 490 kts 225°
2026-05-08 00:18 42.19125 -108.39567 33871 ft 491 kts 225°
2026-05-08 00:18 42.13719 -108.45195 33868 ft 491 kts 225°
2026-05-08 00:19 42.08309 -108.50817 33874 ft 491 kts 225°
2026-05-08 00:19 42.02933 -108.56391 33873 ft 490 kts 225°
2026-05-08 00:20 41.97524 -108.61987 33875 ft 490 kts 225°
2026-05-08 00:20 41.92116 -108.67570 33879 ft 490 kts 225°
2026-05-08 00:21 41.86717 -108.73131 33887 ft 489 kts 225°
2026-05-08 00:21 41.81341 -108.78658 33939 ft 489 kts 225°
2026-05-08 00:22 41.75933 -108.84205 33976 ft 489 kts 225°
2026-05-08 00:22 41.70525 -108.89740 34010 ft 489 kts 225°
2026-05-08 00:23 41.65107 -108.95276 34053 ft 489 kts 225°
2026-05-08 00:23 41.60608 -108.99862 34058 ft 489 kts 226°
2026-05-08 00:24 41.55602 -109.05858 34064 ft 479 kts 233°
2026-05-08 00:24 41.50122 -109.13186 34051 ft 480 kts 233°
2026-05-08 00:25 41.46164 -109.18460 34027 ft 480 kts 233°
2026-05-08 00:25 41.41423 -109.24728 33991 ft 481 kts 233°
2026-05-08 00:26 41.36674 -109.30973 33958 ft 481 kts 233°
2026-05-08 00:26 41.31902 -109.37233 33927 ft 481 kts 233°
2026-05-08 00:27 41.27123 -109.43490 33945 ft 482 kts 233°
2026-05-08 00:27 41.22340 -109.49739 33936 ft 482 kts 233°
2026-05-08 00:28 41.17555 -109.55979 33938 ft 482 kts 233°
2026-05-08 00:28 41.12784 -109.62185 33951 ft 482 kts 233°
2026-05-08 00:29 41.07990 -109.68409 33969 ft 483 kts 233°
2026-05-08 00:29 41.03181 -109.74639 33975 ft 483 kts 233°
2026-05-08 00:30 40.98367 -109.80863 33987 ft 483 kts 233°
2026-05-08 00:30 40.93576 -109.87043 33994 ft 483 kts 232°
2026-05-08 00:31 40.88750 -109.93252 34002 ft 484 kts 232°
2026-05-08 00:31 40.83921 -109.99456 34026 ft 484 kts 232°
2026-05-08 00:32 40.79085 -110.05655 34031 ft 485 kts 232°
2026-05-08 00:32 40.74244 -110.11847 34032 ft 485 kts 232°
2026-05-08 00:33 40.69411 -110.18016 34030 ft 485 kts 232°
2026-05-08 00:33 40.64548 -110.24201 34033 ft 486 kts 231°
2026-05-08 00:34 40.59676 -110.30397 34021 ft 487 kts 231°
2026-05-08 00:34 40.54793 -110.36590 34012 ft 487 kts 231°
2026-05-08 00:35 40.49905 -110.42774 34027 ft 488 kts 231°
2026-05-08 00:35 40.45004 -110.48961 34017 ft 489 kts 231°
2026-05-08 00:36 40.40128 -110.55104 34020 ft 489 kts 231°
2026-05-08 00:36 40.35214 -110.61281 34001 ft 490 kts 231°
2026-05-08 00:37 40.30284 -110.67467 34013 ft 491 kts 231°
2026-05-08 00:38 40.22871 -110.76744 34011 ft 491 kts 230°
2026-05-08 00:38 40.17914 -110.82929 34035 ft 492 kts 230°
2026-05-08 00:39 40.12979 -110.89075 34030 ft 492 kts 230°
2026-05-08 00:39 40.08005 -110.95240 34027 ft 493 kts 230°
2026-05-08 00:40 40.03036 -111.01403 34022 ft 494 kts 230°
2026-05-08 00:40 39.98054 -111.07590 34030 ft 494 kts 230°
2026-05-08 00:41 39.93097 -111.13711 34018 ft 495 kts 230°
2026-05-08 00:41 39.88080 -111.19886 34021 ft 496 kts 229°
2026-05-08 00:42 39.83071 -111.26041 34015 ft 495 kts 229°
2026-05-08 00:42 39.78037 -111.32219 34023 ft 496 kts 229°
2026-05-08 00:43 39.73012 -111.38373 34019 ft 496 kts 229°
2026-05-08 00:43 39.68009 -111.44486 34001 ft 496 kts 229°
2026-05-08 00:44 39.62978 -111.50616 34006 ft 496 kts 229°
2026-05-08 00:44 39.57938 -111.56749 34023 ft 497 kts 229°
2026-05-08 00:45 39.52883 -111.62889 33988 ft 497 kts 229°
2026-05-08 00:45 39.47815 -111.69029 34001 ft 499 kts 228°
2026-05-08 00:46 39.42777 -111.75120 33977 ft 498 kts 228°
2026-05-08 00:46 39.37714 -111.81230 33984 ft 498 kts 228°
2026-05-08 00:47 39.32654 -111.87324 33975 ft 498 kts 228°
2026-05-08 00:47 39.27578 -111.93423 33980 ft 498 kts 228°
2026-05-08 00:48 39.22497 -111.99517 33977 ft 498 kts 227°
2026-05-08 00:48 39.17418 -112.05600 33984 ft 499 kts 227°
2026-05-08 00:49 39.12321 -112.11683 34002 ft 499 kts 227°
2026-05-08 00:49 39.07244 -112.17726 34016 ft 499 kts 227°
2026-05-08 00:50 39.02142 -112.23788 34036 ft 499 kts 227°
2026-05-08 00:50 38.97030 -112.29850 34043 ft 499 kts 227°
2026-05-08 00:51 38.91928 -112.35888 34046 ft 499 kts 227°
2026-05-08 00:51 38.86806 -112.41938 34038 ft 500 kts 227°
2026-05-08 00:52 38.81692 -112.47967 34021 ft 500 kts 226°
2026-05-08 00:52 38.76554 -112.54012 33993 ft 500 kts 226°
2026-05-08 00:53 38.71420 -112.60039 33962 ft 501 kts 226°
2026-05-08 00:53 38.66311 -112.66026 33943 ft 501 kts 226°
2026-05-08 00:54 38.61151 -112.72060 33961 ft 502 kts 226°
2026-05-08 00:54 38.55990 -112.78082 33985 ft 502 kts 226°
2026-05-08 00:55 38.50821 -112.84102 34004 ft 503 kts 226°
2026-05-08 00:55 38.45649 -112.90113 34032 ft 503 kts 226°
2026-05-08 00:56 38.40501 -112.96087 34035 ft 504 kts 226°
2026-05-08 00:56 38.35202 -113.01953 34040 ft 506 kts 220°
2026-05-08 00:57 38.29285 -113.06891 34017 ft 509 kts 215°
2026-05-08 00:57 38.23281 -113.11688 33979 ft 509 kts 215°
2026-05-08 00:58 38.17329 -113.16491 33946 ft 509 kts 215°
2026-05-08 00:58 38.11349 -113.21345 33907 ft 510 kts 215°
2026-05-08 00:59 38.05368 -113.26195 33898 ft 510 kts 215°
2026-05-08 00:59 37.99379 -113.31036 33914 ft 510 kts 215°
2026-05-08 01:00 37.93385 -113.35872 33933 ft 510 kts 215°
2026-05-08 01:00 37.87426 -113.40663 33940 ft 510 kts 215°
2026-05-08 01:01 37.81382 -113.45478 33936 ft 510 kts 214°
2026-05-08 01:01 37.75405 -113.50226 33921 ft 510 kts 214°
2026-05-08 01:02 37.69399 -113.54993 33907 ft 510 kts 214°
2026-05-08 01:02 37.63378 -113.59766 33911 ft 510 kts 214°
2026-05-08 01:03 37.57368 -113.64521 33896 ft 510 kts 214°
2026-05-08 01:03 37.51363 -113.69264 33900 ft 509 kts 214°
2026-05-08 01:04 37.45395 -113.73968 33887 ft 509 kts 214°
2026-05-08 01:04 37.39391 -113.78691 33881 ft 508 kts 214°
2026-05-08 01:05 37.33383 -113.83407 33878 ft 508 kts 213°
2026-05-08 01:05 37.27382 -113.88111 33870 ft 508 kts 213°
2026-05-08 01:06 37.21375 -113.92811 33863 ft 508 kts 213°
2026-05-08 01:06 37.15402 -113.97474 33855 ft 508 kts 213°
2026-05-08 01:07 37.09355 -114.02186 33850 ft 509 kts 213°
2026-05-08 01:07 37.03369 -114.06841 33845 ft 510 kts 213°
2026-05-08 01:08 36.97328 -114.11531 33838 ft 512 kts 213°
2026-05-08 01:08 36.91258 -114.16235 33833 ft 513 kts 213°
2026-05-08 01:09 36.85191 -114.20928 33823 ft 514 kts 214°
2026-05-08 01:09 36.79104 -114.25629 33821 ft 514 kts 213°
2026-05-08 01:10 36.73027 -114.30304 33817 ft 513 kts 213°
2026-05-08 01:10 36.66974 -114.34922 33813 ft 513 kts 213°
2026-05-08 01:11 36.60889 -114.39555 33805 ft 513 kts 213°
2026-05-08 01:11 36.54804 -114.44187 33802 ft 512 kts 213°
2026-05-08 01:12 36.48719 -114.48811 33805 ft 512 kts 213°
2026-05-08 01:12 36.42641 -114.53440 33786 ft 512 kts 213°
2026-05-08 01:13 36.37589 -114.57330 33801 ft 512 kts 213°
2026-05-08 01:13 36.31535 -114.61995 33802 ft 512 kts 213°
2026-05-08 01:14 36.24478 -114.67412 33806 ft 513 kts 213°
2026-05-08 01:14 36.19398 -114.71299 33817 ft 513 kts 213°
2026-05-08 01:15 36.13367 -114.75907 33851 ft 513 kts 213°
2026-05-08 01:15 36.07410 -114.80453 33887 ft 512 kts 213°
2026-05-08 01:16 36.01317 -114.85049 33907 ft 513 kts 210°
2026-05-08 01:16 35.94808 -114.88658 33904 ft 513 kts 200°
2026-05-08 01:17 35.88051 -114.91575 33908 ft 514 kts 199°
2026-05-08 01:17 35.81310 -114.94509 33910 ft 514 kts 200°
2026-05-08 01:18 35.74575 -114.97483 33908 ft 514 kts 200°
2026-05-08 01:18 35.67870 -115.00450 33915 ft 515 kts 200°
2026-05-08 01:19 35.61124 -115.03426 33914 ft 515 kts 200°
2026-05-08 01:19 35.54379 -115.06394 33916 ft 514 kts 200°
2026-05-08 01:19 35.51118 -115.08138 33911 ft 512 kts 211°
2026-05-08 01:20 35.48339 -115.10783 33916 ft 507 kts 228°
2026-05-08 01:20 35.43613 -115.17185 33930 ft 511 kts 229°
2026-05-08 01:21 35.38805 -115.23618 33933 ft 511 kts 229°
2026-05-08 01:21 35.33945 -115.29968 33949 ft 511 kts 228°
2026-05-08 01:22 35.29069 -115.36291 33952 ft 510 kts 228°
2026-05-08 01:22 35.24213 -115.42586 33936 ft 510 kts 228°
2026-05-08 01:23 35.19330 -115.48912 33937 ft 510 kts 228°
2026-05-08 01:23 35.14467 -115.55202 33944 ft 510 kts 228°
2026-05-08 01:24 35.09566 -115.61511 33934 ft 511 kts 227°
2026-05-08 01:24 35.04648 -115.67791 33932 ft 511 kts 227°
2026-05-08 01:25 34.99760 -115.74022 33915 ft 511 kts 227°
2026-05-08 01:25 34.94833 -115.80300 33910 ft 511 kts 227°
2026-05-08 01:26 34.89914 -115.86556 33900 ft 511 kts 227°
2026-05-08 01:26 34.84991 -115.92808 33893 ft 511 kts 227°
2026-05-08 01:27 34.80101 -115.99007 33881 ft 510 kts 227°
2026-05-08 01:27 34.77637 -116.02125 33721 ft 507 kts 227°
2026-05-08 01:27 34.75193 -116.05224 33342 ft 508 kts 227°
2026-05-08 01:27 34.72742 -116.08345 32853 ft 511 kts 227°
2026-05-08 01:28 34.70284 -116.11478 32379 ft 513 kts 227°
2026-05-08 01:28 34.67810 -116.14631 31915 ft 515 kts 227°
2026-05-08 01:28 34.65333 -116.17784 31455 ft 517 kts 227°
2026-05-08 01:28 34.62841 -116.20950 30997 ft 518 kts 227°
2026-05-08 01:29 34.60363 -116.24095 30577 ft 519 kts 227°
2026-05-08 01:29 34.57867 -116.27259 30195 ft 518 kts 227°
2026-05-08 01:29 34.55380 -116.30408 29505 ft 515 kts 227°
2026-05-08 01:29 34.52912 -116.33529 28826 ft 509 kts 227°
2026-05-08 01:30 34.50478 -116.36606 28209 ft 502 kts 227°
2026-05-08 01:30 34.48070 -116.39649 27581 ft 497 kts 227°
2026-05-08 01:30 34.45690 -116.42654 26964 ft 492 kts 227°
2026-05-08 01:30 34.43328 -116.45631 26372 ft 487 kts 227°
2026-05-08 01:31 34.41134 -116.48728 25752 ft 481 kts 238°
2026-05-08 01:31 34.39584 -116.52248 25185 ft 471 kts 246°
2026-05-08 01:31 34.38213 -116.55836 24614 ft 468 kts 247°
2026-05-08 01:31 34.36856 -116.59364 24381 ft 456 kts 246°
2026-05-08 01:32 34.35486 -116.62780 24182 ft 445 kts 245°
2026-05-08 01:32 34.34117 -116.66102 23993 ft 434 kts 245°
2026-05-08 01:32 34.32790 -116.69310 23672 ft 428 kts 245°
2026-05-08 01:32 34.31480 -116.72543 23174 ft 427 kts 246°
2026-05-08 01:33 34.30188 -116.75766 22659 ft 424 kts 246°
2026-05-08 01:33 34.28905 -116.78968 22193 ft 421 kts 246°
2026-05-08 01:33 34.27633 -116.82141 21736 ft 418 kts 246°
2026-05-08 01:33 34.26365 -116.85291 21277 ft 413 kts 245°
2026-05-08 01:34 34.25126 -116.88363 20824 ft 401 kts 245°
2026-05-08 01:34 34.23904 -116.91390 20421 ft 399 kts 245°
2026-05-08 01:34 34.22693 -116.94388 19999 ft 397 kts 245°
2026-05-08 01:34 34.21477 -116.97393 19556 ft 396 kts 245°
2026-05-08 01:35 34.20406 -117.00398 19139 ft 392 kts 252°
2026-05-08 01:35 34.19570 -117.03515 18725 ft 389 kts 255°
2026-05-08 01:35 34.18800 -117.06649 18292 ft 388 kts 255°
2026-05-08 01:35 34.18007 -117.09763 17815 ft 387 kts 254°
2026-05-08 01:36 34.17185 -117.12847 17367 ft 385 kts 253°
2026-05-08 01:36 34.16363 -117.15871 16932 ft 383 kts 253°
2026-05-08 01:36 34.15528 -117.18906 16486 ft 380 kts 252°
2026-05-08 01:36 34.14692 -117.21932 16080 ft 378 kts 252°
2026-05-08 01:37 34.13863 -117.24938 15652 ft 375 kts 252°
2026-05-08 01:37 34.13054 -117.27875 15250 ft 373 kts 252°
2026-05-08 01:37 34.12235 -117.30848 14840 ft 370 kts 252°
2026-05-08 01:37 34.11421 -117.33796 14436 ft 368 kts 252°
2026-05-08 01:38 34.10615 -117.36714 14036 ft 366 kts 252°
2026-05-08 01:38 34.09849 -117.39639 13638 ft 363 kts 254°
2026-05-08 01:38 34.09134 -117.42534 13258 ft 359 kts 254°
2026-05-08 01:38 34.08435 -117.45370 12896 ft 355 kts 254°
2026-05-08 01:39 34.07732 -117.48193 12543 ft 351 kts 254°
2026-05-08 01:39 34.06985 -117.50986 12202 ft 344 kts 250°
2026-05-08 01:39 34.06076 -117.53605 11864 ft 334 kts 247°
2026-05-08 01:39 34.05119 -117.56145 11539 ft 331 kts 247°
2026-05-08 01:40 34.04171 -117.58668 11215 ft 329 kts 248°
2026-05-08 01:40 34.03248 -117.61175 10890 ft 326 kts 248°
2026-05-08 01:40 34.02346 -117.63666 10577 ft 323 kts 249°
2026-05-08 01:40 34.01467 -117.66097 10243 ft 308 kts 249°
2026-05-08 01:41 34.00689 -117.68356 9942 ft 291 kts 256°
2026-05-08 01:41 34.00383 -117.70540 9639 ft 280 kts 267°
2026-05-08 01:41 34.00203 -117.72869 9345 ft 277 kts 266°
2026-05-08 01:41 34.00001 -117.75164 9083 ft 273 kts 266°
2026-05-08 01:42 33.99793 -117.77421 8805 ft 270 kts 265°
2026-05-08 01:42 33.99576 -117.79658 8524 ft 268 kts 265°
2026-05-08 01:42 33.99359 -117.81882 8237 ft 266 kts 265°
2026-05-08 01:42 33.99145 -117.84089 7962 ft 264 kts 265°
2026-05-08 01:43 33.98932 -117.86283 7688 ft 263 kts 265°
2026-05-08 01:43 33.98723 -117.88442 7409 ft 262 kts 265°
2026-05-08 01:43 33.98511 -117.90609 7121 ft 259 kts 265°
2026-05-08 01:43 33.98299 -117.92767 6857 ft 258 kts 264°
2026-05-08 01:44 33.98087 -117.94912 6582 ft 257 kts 264°
2026-05-08 01:44 33.97877 -117.97037 6313 ft 255 kts 264°
2026-05-08 01:44 33.97669 -117.99146 6023 ft 252 kts 264°
2026-05-08 01:44 33.97464 -118.01232 5760 ft 249 kts 264°
2026-05-08 01:45 33.97273 -118.03288 5495 ft 245 kts 265°
2026-05-08 01:45 33.97108 -118.05069 5266 ft 242 kts 264°
2026-05-08 01:45 33.96911 -118.07072 5061 ft 236 kts 264°
2026-05-08 01:45 33.96714 -118.09029 4740 ft 234 kts 264°
2026-05-08 01:46 33.96516 -118.10970 4428 ft 232 kts 264°
2026-05-08 01:46 33.96320 -118.12888 4126 ft 230 kts 264°
2026-05-08 01:46 33.96126 -118.14796 3832 ft 227 kts 264°
2026-05-08 01:46 33.95935 -118.16674 3559 ft 225 kts 264°
2026-05-08 01:47 33.95746 -118.18537 3278 ft 224 kts 264°
2026-05-08 01:47 33.95556 -118.20395 2993 ft 221 kts 264°
2026-05-08 01:47 33.95370 -118.22225 2706 ft 219 kts 264°
2026-05-08 01:48 33.95006 -118.25809 2159 ft 213 kts 263°
2026-05-08 01:48 33.94831 -118.27521 1877 ft 209 kts 263°
2026-05-08 01:48 33.94659 -118.29216 1597 ft 197 kts 263°
2026-05-08 01:48 33.94500 -118.30777 1352 ft 178 kts 263°
2026-05-08 01:49 33.94360 -118.32174 1067 ft 160 kts 263°
2026-05-08 01:49 33.94230 -118.33456 905 ft 150 kts 262°
2026-05-08 01:49 33.94097 -118.34699 735 ft 151 kts 262°
2026-05-08 01:49 33.93966 -118.35969 591 ft 152 kts 263°
2026-05-08 01:50 33.93848 -118.37206 320 ft 148 kts 262°
2026-05-08 01:50 33.93723 -118.38425 146 ft 150 kts 261°
2026-05-08 01:50 33.93605 -118.39556 113 ft 124 kts 263°
2026-05-08 01:50 33.93521 -118.40379 113 ft 71 kts 263°
2026-05-08 01:51 33.93477 -118.40828 114 ft 40 kts 267°
2026-05-08 01:51 33.93501 -118.41073 114 ft 23 kts 292°
2026-05-08 01:51 33.93534 -118.41176 108 ft 7 kts 285°
2026-05-08 01:51 33.93539 -118.41211 108 ft 1 kts 278°
2026-05-08 01:52 33.93544 -118.41226 108 ft 4 kts 296°
2026-05-08 01:52 33.93600 -118.41258 112 ft 14 kts 345°
2026-05-08 01:52 33.93699 -118.41276 111 ft 13 kts 356°
2026-05-08 01:52 33.93753 -118.41226 108 ft 11 kts 79°
2026-05-08 01:53 33.93767 -118.41091 107 ft 19 kts 83°
2026-05-08 01:53 33.93782 -118.40934 106 ft 19 kts 83°
2026-05-08 01:53 33.93797 -118.40798 107 ft 13 kts 82°
2026-05-08 01:53 33.93828 -118.40748 107 ft 7 kts 21°
2026-05-08 01:54 33.93875 -118.40763 105 ft 8 kts 314°
2026-05-08 01:54 33.93925 -118.40807 103 ft 10 kts 340°
2026-05-08 01:54 33.93994 -118.40822 102 ft 11 kts 353°
2026-05-08 01:54 33.94069 -118.40833 101 ft 11 kts 353°
2026-05-08 01:55 33.94138 -118.40843 101 ft 7 kts 352°
2026-05-08 01:55 33.94158 -118.40860 100 ft 3 kts 298°
2026-05-08 01:55 33.94158 -118.40889 101 ft 4 kts 269°
2026-05-08 01:55 33.94156 -118.40920 103 ft 4 kts 264°
2026-05-08 01:56 33.94154 -118.40941 103 ft 1 kts 263°
2026-05-08 01:56 33.94153 -118.40948 102 ft 0 kts 263°